Time,TemperatureF,DewpointF,PressureIn,WindDirection,WindDirectionDegrees,WindSpeedMPH,WindSpeedGustMPH,Humidity,HourlyPrecipIn,Conditions,Clouds,dailyrainin,SoftwareType,DateUTC
2013-12-02 00:01:00,34.5,31.3,30.07,West,262,0.0,1.0,88,0.00,,,0.00,Wunderground v.1.12,2013-12-02 05:01:00,
2013-12-02 00:02:00,34.5,31.3,30.07,West,263,0.0,1.0,88,0.00,,,0.00,Wunderground v.1.12,2013-12-02 05:02:00,
2013-12-02 00:06:00,34.6,31.4,30.07,West,263,0.0,1.0,88,0.00,,,0.00,Wunderground v.1.12,2013-12-02 05:06:00,
2013-12-02 00:07:00,34.6,31.4,30.06,West,262,0.0,1.0,88,0.00,,,0.00,Wunderground v.1.12,2013-12-02 05:07:00,
2013-12-02 00:11:00,34.6,31.4,30.06,WSW,257,0.0,0.0,88,0.00,,,0.00,Wunderground v.1.12,2013-12-02 05:11:00,
2013-12-02 00:12:00,34.6,31.4,30.06,WSW,257,0.0,0.0,88,0.00,,,0.00,Wunderground v.1.12,2013-12-02 05:12:00,
2013-12-02 00:16:00,34.7,31.2,30.06,WSW,253,0.0,1.0,87,0.00,,,0.00,Wunderground v.1.12,2013-12-02 05:16:00,
2013-12-02 00:17:00,34.7,31.2,30.06,WSW,254,0.0,1.0,87,0.00,,,0.00,Wunderground v.1.12,2013-12-02 05:17:00,
2013-12-02 00:18:00,34.7,31.2,30.06,WSW,253,0.0,1.0,87,0.00,,,0.00,Wunderground v.1.12,2013-12-02 05:18:00,
2013-12-02 00:22:00,34.7,31.2,30.06,WSW,253,0.0,0.0,87,0.00,,,0.00,Wunderground v.1.12,2013-12-02 05:22:00,
2013-12-02 00:23:00,34.7,31.2,30.06,WSW,253,0.0,0.0,87,0.00,,,0.00,Wunderground v.1.12,2013-12-02 05:23:00,
2013-12-02 00:27:00,34.6,31.1,30.06,WSW,253,0.0,1.0,87,0.00,,,0.00,Wunderground v.1.12,2013-12-02 05:27:00,
2013-12-02 00:28:00,34.6,31.4,30.06,WSW,253,0.0,1.0,88,0.00,,,0.00,Wunderground v.1.12,2013-12-02 05:28:00,
2013-12-02 00:32:00,34.6,31.4,30.06,WSW,253,0.0,0.0,88,0.00,,,0.00,Wunderground v.1.12,2013-12-02 05:32:00,
2013-12-02 00:33:00,34.6,31.1,30.06,WSW,253,0.0,0.0,87,0.00,,,0.00,Wunderground v.1.12,2013-12-02 05:33:00,
2013-12-02 00:37:00,34.7,31.2,30.06,WSW,253,0.0,0.0,87,0.00,,,0.00,Wunderground v.1.12,2013-12-02 05:37:00,
2013-12-02 00:38:00,34.8,31.3,30.05,WSW,253,0.0,0.0,87,0.00,,,0.00,Wunderground v.1.12,2013-12-02 05:38:00,
2013-12-02 00:42:00,34.9,31.4,30.05,WSW,252,0.0,0.0,87,0.00,,,0.00,Wunderground v.1.12,2013-12-02 05:42:00,
2013-12-02 00:43:00,34.8,31.3,30.05,WSW,253,0.0,1.0,87,0.00,,,0.00,Wunderground v.1.12,2013-12-02 05:43:00,
2013-12-02 00:44:00,34.8,31.3,30.05,WSW,252,0.0,0.0,87,0.00,,,0.00,Wunderground v.1.12,2013-12-02 05:44:00,
2013-12-02 00:47:00,34.8,31.3,30.05,WSW,253,0.0,0.0,87,0.00,,,0.00,Wunderground v.1.12,2013-12-02 05:47:00,
2013-12-02 00:48:00,34.8,31.3,30.05,WSW,254,0.0,0.0,87,0.00,,,0.00,Wunderground v.1.12,2013-12-02 05:48:00,
2013-12-02 00:49:00,34.8,31.3,30.05,WSW,253,0.0,0.0,87,0.00,,,0.00,Wunderground v.1.12,2013-12-02 05:49:00,
2013-12-02 00:52:00,35.0,31.5,30.05,WNW,285,0.0,1.0,87,0.00,,,0.00,Wunderground v.1.12,2013-12-02 05:52:00,
2013-12-02 00:53:00,35.1,31.3,30.05,WNW,285,0.0,1.0,86,0.00,,,0.00,Wunderground v.1.12,2013-12-02 05:53:00,
2013-12-02 00:54:00,35.1,31.3,30.05,WNW,285,0.0,1.0,86,0.00,,,0.00,Wunderground v.1.12,2013-12-02 05:54:00,
2013-12-02 00:55:00,35.3,31.5,30.05,WNW,284,1.0,1.0,86,0.00,,,0.00,Wunderground v.1.12,2013-12-02 05:55:00,
2013-12-02 00:57:00,35.5,31.4,30.05,WNW,283,0.0,1.0,85,0.00,,,0.00,Wunderground v.1.12,2013-12-02 05:57:00,
2013-12-02 00:59:00,35.6,31.5,30.05,WNW,282,0.0,1.0,85,0.00,,,0.00,Wunderground v.1.12,2013-12-02 05:59:00,
2013-12-02 01:01:00,35.6,31.5,30.05,WNW,282,0.0,0.0,85,0.00,,,0.00,Wunderground v.1.12,2013-12-02 06:01:00,
2013-12-02 01:02:00,35.5,31.4,30.05,WSW,249,0.0,0.0,85,0.00,,,0.00,Wunderground v.1.12,2013-12-02 06:02:00,
2013-12-02 01:04:00,35.4,31.3,30.05,WSW,249,0.0,0.0,85,0.00,,,0.00,Wunderground v.1.12,2013-12-02 06:04:00,
2013-12-02 01:05:00,35.3,31.5,30.04,WSW,249,0.0,1.0,86,0.00,,,0.00,Wunderground v.1.12,2013-12-02 06:05:00,
2013-12-02 01:06:00,35.3,31.5,30.04,WSW,249,0.0,1.0,86,0.00,,,0.00,Wunderground v.1.12,2013-12-02 06:06:00,
2013-12-02 01:07:00,35.2,31.4,30.04,WSW,249,0.0,1.0,86,0.00,,,0.00,Wunderground v.1.12,2013-12-02 06:07:00,
2013-12-02 01:09:00,35.1,31.3,30.04,WSW,249,0.0,0.0,86,0.00,,,0.00,Wunderground v.1.12,2013-12-02 06:09:00,
2013-12-02 01:10:00,35.1,31.3,30.04,WSW,249,0.0,0.0,86,0.00,,,0.00,Wunderground v.1.12,2013-12-02 06:10:00,
2013-12-02 01:11:00,35.1,31.3,30.04,WSW,249,0.0,0.0,86,0.00,,,0.00,Wunderground v.1.12,2013-12-02 06:11:00,
2013-12-02 01:12:00,35.1,31.3,30.04,WSW,249,0.0,0.0,86,0.00,,,0.00,Wunderground v.1.12,2013-12-02 06:12:00,
2013-12-02 01:14:00,35.1,31.3,30.04,WSW,249,0.0,0.0,86,0.00,,,0.00,Wunderground v.1.12,2013-12-02 06:14:00,
2013-12-02 01:15:00,35.0,31.2,30.04,WSW,249,0.0,0.0,86,0.00,,,0.00,Wunderground v.1.12,2013-12-02 06:15:00,
2013-12-02 01:16:00,34.9,31.4,30.04,WSW,249,0.0,0.0,87,0.00,,,0.00,Wunderground v.1.12,2013-12-02 06:16:00,
2013-12-02 01:17:00,34.9,31.4,30.04,WSW,249,0.0,0.0,87,0.00,,,0.00,Wunderground v.1.12,2013-12-02 06:17:00,
2013-12-02 01:19:00,34.9,31.4,30.04,WSW,249,0.0,0.0,87,0.00,,,0.00,Wunderground v.1.12,2013-12-02 06:19:00,
2013-12-02 01:20:00,34.8,31.3,30.04,WSW,249,0.0,0.0,87,0.00,,,0.00,Wunderground v.1.12,2013-12-02 06:20:00,
2013-12-02 01:21:00,34.8,31.3,30.04,WSW,249,0.0,0.0,87,0.00,,,0.00,Wunderground v.1.12,2013-12-02 06:21:00,
2013-12-02 01:22:00,34.8,31.3,30.04,WSW,249,0.0,0.0,87,0.00,,,0.00,Wunderground v.1.12,2013-12-02 06:22:00,
2013-12-02 01:24:00,34.7,31.2,30.04,WSW,249,0.0,0.0,87,0.00,,,0.00,Wunderground v.1.12,2013-12-02 06:24:00,
2013-12-02 01:25:00,34.7,31.2,30.04,WSW,249,0.0,0.0,87,0.00,,,0.00,Wunderground v.1.12,2013-12-02 06:25:00,
2013-12-02 01:26:00,34.7,31.2,30.04,WSW,249,0.0,0.0,87,0.00,,,0.00,Wunderground v.1.12,2013-12-02 06:26:00,
2013-12-02 01:27:00,34.7,31.2,30.04,WSW,249,0.0,0.0,87,0.00,,,0.00,Wunderground v.1.12,2013-12-02 06:27:00,
2013-12-02 01:28:00,34.7,31.2,30.04,WSW,249,0.0,0.0,87,0.00,,,0.00,Wunderground v.1.12,2013-12-02 06:28:00,
2013-12-02 01:29:00,34.6,31.1,30.04,WSW,249,0.0,0.0,87,0.00,,,0.00,Wunderground v.1.12,2013-12-02 06:29:00,
2013-12-02 01:30:00,34.6,31.4,30.04,WSW,249,0.0,0.0,88,0.00,,,0.00,Wunderground v.1.12,2013-12-02 06:30:00,
2013-12-02 01:31:00,34.6,31.4,30.04,WSW,249,0.0,0.0,88,0.00,,,0.00,Wunderground v.1.12,2013-12-02 06:31:00,
2013-12-02 01:32:00,34.6,31.4,30.04,WSW,249,0.0,0.0,88,0.00,,,0.00,Wunderground v.1.12,2013-12-02 06:32:00,
2013-12-02 01:33:00,34.5,31.3,30.04,WSW,249,0.0,0.0,88,0.00,,,0.00,Wunderground v.1.12,2013-12-02 06:33:00,
2013-12-02 01:34:00,34.4,31.2,30.04,WSW,249,0.0,0.0,88,0.00,,,0.00,Wunderground v.1.12,2013-12-02 06:34:00,
2013-12-02 01:35:00,34.4,31.2,30.04,WSW,249,0.0,1.0,88,0.00,,,0.00,Wunderground v.1.12,2013-12-02 06:35:00,
2013-12-02 01:36:00,34.3,31.4,30.04,WSW,249,0.0,1.0,89,0.00,,,0.00,Wunderground v.1.12,2013-12-02 06:36:00,
2013-12-02 01:37:00,34.3,31.4,30.04,WSW,249,0.0,1.0,89,0.00,,,0.00,Wunderground v.1.12,2013-12-02 06:37:00,
2013-12-02 01:38:00,34.2,31.3,30.03,WSW,249,0.0,1.0,89,0.00,,,0.00,Wunderground v.1.12,2013-12-02 06:38:00,
2013-12-02 01:40:00,34.1,31.2,30.04,WSW,249,0.0,1.0,89,0.00,,,0.00,Wunderground v.1.12,2013-12-02 06:40:00,
2013-12-02 01:42:00,34.1,31.5,30.03,WSW,249,0.0,1.0,90,0.00,,,0.00,Wunderground v.1.12,2013-12-02 06:42:00,
2013-12-02 01:43:00,34.0,31.4,30.04,WSW,249,0.0,1.0,90,0.00,,,0.00,Wunderground v.1.12,2013-12-02 06:43:00,
2013-12-02 01:45:00,33.9,31.3,30.03,WSW,248,0.0,0.0,90,0.00,,,0.00,Wunderground v.1.12,2013-12-02 06:45:00,
2013-12-02 01:46:00,33.9,31.3,30.04,WSW,249,0.0,0.0,90,0.00,,,0.00,Wunderground v.1.12,2013-12-02 06:46:00,
2013-12-02 01:47:00,33.9,31.3,30.03,WSW,249,0.0,1.0,90,0.00,,,0.00,Wunderground v.1.12,2013-12-02 06:47:00,
2013-12-02 01:48:00,33.9,31.3,30.04,WSW,249,0.0,1.0,90,0.00,,,0.00,Wunderground v.1.12,2013-12-02 06:48:00,
2013-12-02 01:50:00,34.0,31.4,30.04,WSW,249,0.0,0.0,90,0.00,,,0.00,Wunderground v.1.12,2013-12-02 06:50:00,
2013-12-02 01:51:00,34.1,31.2,30.04,WSW,249,0.0,0.0,89,0.00,,,0.00,Wunderground v.1.12,2013-12-02 06:51:00,
2013-12-02 01:52:00,34.1,31.2,30.04,WSW,249,0.0,0.0,89,0.00,,,0.00,Wunderground v.1.12,2013-12-02 06:52:00,
2013-12-02 01:54:00,34.1,31.2,30.04,WSW,249,0.0,0.0,89,0.00,,,0.00,Wunderground v.1.12,2013-12-02 06:54:00,
2013-12-02 01:55:00,34.2,31.3,30.04,WSW,249,0.0,0.0,89,0.00,,,0.00,Wunderground v.1.12,2013-12-02 06:55:00,
2013-12-02 01:56:00,34.2,31.3,30.04,WSW,249,0.0,0.0,89,0.00,,,0.00,Wunderground v.1.12,2013-12-02 06:56:00,
2013-12-02 01:58:00,34.3,31.4,30.04,WSW,249,0.0,0.0,89,0.00,,,0.00,Wunderground v.1.12,2013-12-02 06:58:00,
2013-12-02 01:59:00,34.3,31.1,30.04,WSW,249,0.0,0.0,88,0.00,,,0.00,Wunderground v.1.12,2013-12-02 06:59:00,
2013-12-02 02:00:00,34.3,31.1,30.04,WSW,249,0.0,0.0,88,0.00,,,0.00,Wunderground v.1.12,2013-12-02 07:00:00,
2013-12-02 02:01:00,34.4,31.2,30.03,WSW,249,0.0,0.0,88,0.00,,,0.00,Wunderground v.1.12,2013-12-02 07:01:00,
2013-12-02 02:04:00,34.4,31.2,30.03,WSW,249,0.0,0.0,88,0.00,,,0.00,Wunderground v.1.12,2013-12-02 07:04:00,
2013-12-02 02:05:00,34.4,31.2,30.04,WSW,249,0.0,0.0,88,0.00,,,0.00,Wunderground v.1.12,2013-12-02 07:05:00,
2013-12-02 02:06:00,34.4,31.2,30.04,WSW,249,0.0,0.0,88,0.00,,,0.00,Wunderground v.1.12,2013-12-02 07:06:00,
2013-12-02 02:09:00,34.4,31.2,30.03,WSW,249,0.0,0.0,88,0.00,,,0.00,Wunderground v.1.12,2013-12-02 07:09:00,
2013-12-02 02:10:00,34.4,31.2,30.03,WSW,249,0.0,0.0,88,0.00,,,0.00,Wunderground v.1.12,2013-12-02 07:10:00,
2013-12-02 02:11:00,34.4,31.2,30.03,WSW,249,0.0,0.0,88,0.00,,,0.00,Wunderground v.1.12,2013-12-02 07:11:00,
2013-12-02 02:12:00,34.5,31.0,30.03,WSW,249,0.0,0.0,87,0.00,,,0.00,Wunderground v.1.12,2013-12-02 07:12:00,
2013-12-02 02:14:00,34.5,31.3,30.03,WSW,249,0.0,0.0,88,0.00,,,0.00,Wunderground v.1.12,2013-12-02 07:14:00,
2013-12-02 02:15:00,34.5,31.3,30.04,WSW,249,0.0,0.0,88,0.00,,,0.00,Wunderground v.1.12,2013-12-02 07:15:00,
2013-12-02 02:16:00,34.4,31.2,30.04,WSW,249,0.0,1.0,88,0.00,,,0.00,Wunderground v.1.12,2013-12-02 07:16:00,
2013-12-02 02:17:00,34.4,31.2,30.04,WSW,249,0.0,1.0,88,0.00,,,0.00,Wunderground v.1.12,2013-12-02 07:17:00,
2013-12-02 02:19:00,34.3,31.1,30.04,WSW,249,0.0,0.0,88,0.00,,,0.00,Wunderground v.1.12,2013-12-02 07:19:00,
2013-12-02 02:20:00,34.3,31.1,30.04,WSW,249,0.0,0.0,88,0.00,,,0.00,Wunderground v.1.12,2013-12-02 07:20:00,
2013-12-02 02:22:00,34.3,31.1,30.04,WSW,249,0.0,0.0,88,0.00,,,0.00,Wunderground v.1.12,2013-12-02 07:22:00,
2013-12-02 02:24:00,34.3,31.1,30.04,WSW,249,0.0,0.0,88,0.00,,,0.00,Wunderground v.1.12,2013-12-02 07:24:00,
2013-12-02 02:25:00,34.4,31.2,30.04,WSW,249,0.0,0.0,88,0.00,,,0.00,Wunderground v.1.12,2013-12-02 07:25:00,
2013-12-02 02:26:00,34.4,31.2,30.04,WSW,249,0.0,0.0,88,0.00,,,0.00,Wunderground v.1.12,2013-12-02 07:26:00,
2013-12-02 02:27:00,34.4,31.2,30.04,WSW,249,0.0,0.0,88,0.00,,,0.00,Wunderground v.1.12,2013-12-02 07:27:00,
2013-12-02 02:29:00,34.4,31.2,30.03,WSW,249,0.0,0.0,88,0.00,,,0.00,Wunderground v.1.12,2013-12-02 07:29:00,
2013-12-02 02:30:00,34.3,31.1,30.04,WSW,249,0.0,0.0,88,0.00,,,0.00,Wunderground v.1.12,2013-12-02 07:30:00,
2013-12-02 02:31:00,34.3,31.1,30.04,WSW,249,0.0,0.0,88,0.00,,,0.00,Wunderground v.1.12,2013-12-02 07:31:00,
2013-12-02 02:32:00,34.3,31.1,30.03,WSW,249,0.0,0.0,88,0.00,,,0.00,Wunderground v.1.12,2013-12-02 07:32:00,
2013-12-02 02:34:00,34.2,31.0,30.03,WSW,249,0.0,0.0,88,0.00,,,0.00,Wunderground v.1.12,2013-12-02 07:34:00,
2013-12-02 02:35:00,34.2,31.0,30.03,WSW,249,0.0,0.0,88,0.00,,,0.00,Wunderground v.1.12,2013-12-02 07:35:00,
2013-12-02 02:36:00,34.2,31.0,30.03,WSW,249,0.0,0.0,88,0.00,,,0.00,Wunderground v.1.12,2013-12-02 07:36:00,
2013-12-02 02:37:00,34.1,30.9,30.03,WSW,249,0.0,0.0,88,0.00,,,0.00,Wunderground v.1.12,2013-12-02 07:37:00,
2013-12-02 02:38:00,34.1,30.9,30.03,WSW,249,0.0,0.0,88,0.00,,,0.00,Wunderground v.1.12,2013-12-02 07:38:00,
2013-12-02 02:39:00,34.2,31.0,30.03,WSW,253,0.0,0.0,88,0.00,,,0.00,Wunderground v.1.12,2013-12-02 07:39:00,
2013-12-02 02:40:00,34.2,31.0,30.04,West,267,0.0,1.0,88,0.00,,,0.00,Wunderground v.1.12,2013-12-02 07:40:00,
2013-12-02 02:41:00,34.2,30.7,30.03,West,267,0.0,1.0,87,0.00,,,0.00,Wunderground v.1.12,2013-12-02 07:41:00,
2013-12-02 02:42:00,34.3,30.8,30.03,West,267,0.0,1.0,87,0.00,,,0.00,Wunderground v.1.12,2013-12-02 07:42:00,
2013-12-02 02:43:00,34.4,30.9,30.03,WSW,240,1.0,1.0,87,0.00,,,0.00,Wunderground v.1.12,2013-12-02 07:43:00,
2013-12-02 02:44:00,34.4,30.9,30.03,WSW,244,0.0,1.0,87,0.00,,,0.00,Wunderground v.1.12,2013-12-02 07:44:00,
2013-12-02 02:45:00,34.4,30.9,30.03,WSW,248,1.0,1.0,87,0.00,,,0.00,Wunderground v.1.12,2013-12-02 07:45:00,
2013-12-02 02:46:00,34.3,30.8,30.03,SW,226,0.0,1.0,87,0.00,,,0.00,Wunderground v.1.12,2013-12-02 07:46:00,
2013-12-02 02:47:00,34.2,31.0,30.03,SW,226,0.0,1.0,88,0.00,,,0.00,Wunderground v.1.12,2013-12-02 07:47:00,
2013-12-02 02:49:00,34.1,30.9,30.03,SW,229,0.0,1.0,88,0.00,,,0.00,Wunderground v.1.12,2013-12-02 07:49:00,
2013-12-02 02:50:00,34.0,30.8,30.03,WSW,240,1.0,1.0,88,0.00,,,0.00,Wunderground v.1.12,2013-12-02 07:50:00,
2013-12-02 02:51:00,33.8,30.9,30.03,WSW,240,0.0,1.0,89,0.00,,,0.00,Wunderground v.1.12,2013-12-02 07:51:00,
2013-12-02 02:52:00,33.7,30.8,30.03,WSW,240,0.0,1.0,89,0.00,,,0.00,Wunderground v.1.12,2013-12-02 07:52:00,
2013-12-02 02:54:00,33.5,30.6,30.03,WSW,240,1.0,1.0,89,0.00,,,0.00,Wunderground v.1.12,2013-12-02 07:54:00,
2013-12-02 02:55:00,33.5,30.9,30.03,WSW,242,1.0,1.0,90,0.00,,,0.00,Wunderground v.1.12,2013-12-02 07:55:00,
2013-12-02 02:56:00,33.4,30.8,30.03,WSW,242,0.0,1.0,90,0.00,,,0.00,Wunderground v.1.12,2013-12-02 07:56:00,
2013-12-02 02:57:00,33.4,30.8,30.03,WSW,242,0.0,1.0,90,0.00,,,0.00,Wunderground v.1.12,2013-12-02 07:57:00,
2013-12-02 02:59:00,33.3,30.7,30.03,WSW,242,0.0,0.0,90,0.00,,,0.00,Wunderground v.1.12,2013-12-02 07:59:00,
2013-12-02 03:00:00,33.3,30.7,30.03,WSW,242,0.0,0.0,90,0.00,,,0.00,Wunderground v.1.12,2013-12-02 08:00:00,
2013-12-02 03:01:00,33.3,30.7,30.03,WSW,242,0.0,0.0,90,0.00,,,0.00,Wunderground v.1.12,2013-12-02 08:01:00,
2013-12-02 03:02:00,33.3,30.7,30.03,WSW,241,0.0,0.0,90,0.00,,,0.00,Wunderground v.1.12,2013-12-02 08:02:00,
2013-12-02 03:04:00,33.3,30.7,30.03,WSW,243,0.0,0.0,90,0.00,,,0.00,Wunderground v.1.12,2013-12-02 08:04:00,
2013-12-02 03:05:00,33.4,30.8,30.03,WSW,240,0.0,0.0,90,0.00,,,0.00,Wunderground v.1.12,2013-12-02 08:05:00,
2013-12-02 03:06:00,33.4,30.8,30.03,SW,231,0.0,0.0,90,0.00,,,0.00,Wunderground v.1.12,2013-12-02 08:06:00,
2013-12-02 03:07:00,33.4,30.8,30.03,SW,235,0.0,1.0,90,0.00,,,0.00,Wunderground v.1.12,2013-12-02 08:07:00,
2013-12-02 03:09:00,33.3,30.7,30.03,SW,233,0.0,0.0,90,0.00,,,0.00,Wunderground v.1.12,2013-12-02 08:09:00,
2013-12-02 03:10:00,33.2,30.9,30.03,SW,235,0.0,0.0,91,0.00,,,0.00,Wunderground v.1.12,2013-12-02 08:10:00,
2013-12-02 03:11:00,33.2,30.9,30.03,SW,235,0.0,0.0,91,0.00,,,0.00,Wunderground v.1.12,2013-12-02 08:11:00,
2013-12-02 03:12:00,33.2,30.9,30.03,SW,235,0.0,1.0,91,0.00,,,0.00,Wunderground v.1.12,2013-12-02 08:12:00,
2013-12-02 03:14:00,33.2,30.9,30.03,WSW,242,1.0,1.0,91,0.00,,,0.00,Wunderground v.1.12,2013-12-02 08:14:00,
2013-12-02 03:15:00,33.1,30.8,30.03,WSW,240,0.0,1.0,91,0.00,,,0.00,Wunderground v.1.12,2013-12-02 08:15:00,
2013-12-02 03:16:00,33.1,30.8,30.02,WSW,240,0.0,1.0,91,0.00,,,0.00,Wunderground v.1.12,2013-12-02 08:16:00,
2013-12-02 03:17:00,33.1,30.8,30.02,WSW,242,0.0,1.0,91,0.00,,,0.00,Wunderground v.1.12,2013-12-02 08:17:00,
2013-12-02 03:19:00,33.1,30.8,30.02,WSW,242,0.0,0.0,91,0.00,,,0.00,Wunderground v.1.12,2013-12-02 08:19:00,
2013-12-02 03:20:00,33.1,30.8,30.02,WSW,242,0.0,0.0,91,0.00,,,0.00,Wunderground v.1.12,2013-12-02 08:20:00,
2013-12-02 03:21:00,33.1,30.8,30.02,WSW,242,0.0,0.0,91,0.00,,,0.00,Wunderground v.1.12,2013-12-02 08:21:00,
2013-12-02 03:23:00,33.2,30.9,30.02,WSW,242,0.0,0.0,91,0.00,,,0.00,Wunderground v.1.12,2013-12-02 08:23:00,
2013-12-02 03:25:00,33.2,30.9,30.02,WSW,241,0.0,0.0,91,0.00,,,0.00,Wunderground v.1.12,2013-12-02 08:25:00,
2013-12-02 03:26:00,33.3,31.0,30.02,WSW,242,0.0,0.0,91,0.00,,,0.00,Wunderground v.1.12,2013-12-02 08:26:00,
2013-12-02 03:27:00,33.3,31.0,30.02,WSW,242,0.0,0.0,91,0.00,,,0.00,Wunderground v.1.12,2013-12-02 08:27:00,
2013-12-02 03:28:00,33.3,31.0,30.02,WSW,242,0.0,0.0,91,0.00,,,0.00,Wunderground v.1.12,2013-12-02 08:28:00,
2013-12-02 03:30:00,33.3,30.7,30.01,WSW,242,0.0,0.0,90,0.00,,,0.00,Wunderground v.1.12,2013-12-02 08:30:00,
2013-12-02 03:31:00,33.3,30.7,30.01,WSW,241,0.0,0.0,90,0.00,,,0.00,Wunderground v.1.12,2013-12-02 08:31:00,
2013-12-02 03:32:00,33.3,30.7,30.01,WSW,242,0.0,0.0,90,0.00,,,0.00,Wunderground v.1.12,2013-12-02 08:32:00,
2013-12-02 03:33:00,33.3,30.7,30.01,WSW,242,0.0,0.0,90,0.00,,,0.00,Wunderground v.1.12,2013-12-02 08:33:00,
2013-12-02 03:35:00,33.3,30.7,30.01,WSW,242,0.0,0.0,90,0.00,,,0.00,Wunderground v.1.12,2013-12-02 08:35:00,
2013-12-02 03:36:00,33.3,30.7,30.01,WSW,242,0.0,0.0,90,0.00,,,0.00,Wunderground v.1.12,2013-12-02 08:36:00,
2013-12-02 03:37:00,33.3,30.7,30.01,WSW,242,0.0,0.0,90,0.00,,,0.00,Wunderground v.1.12,2013-12-02 08:37:00,
2013-12-02 03:38:00,33.3,30.7,30.01,WSW,242,0.0,0.0,90,0.00,,,0.00,Wunderground v.1.12,2013-12-02 08:38:00,
2013-12-02 03:40:00,33.2,30.6,30.01,WSW,242,0.0,0.0,90,0.00,,,0.00,Wunderground v.1.12,2013-12-02 08:40:00,
2013-12-02 03:41:00,33.2,30.6,30.01,WSW,242,0.0,0.0,90,0.00,,,0.00,Wunderground v.1.12,2013-12-02 08:41:00,
2013-12-02 03:42:00,33.1,30.5,30.01,WSW,242,0.0,0.0,90,0.00,,,0.00,Wunderground v.1.12,2013-12-02 08:42:00,
2013-12-02 03:43:00,33.1,30.8,30.01,WSW,242,0.0,0.0,91,0.00,,,0.00,Wunderground v.1.12,2013-12-02 08:43:00,
2013-12-02 03:45:00,33.0,30.7,30.01,WSW,242,1.0,1.0,91,0.00,,,0.00,Wunderground v.1.12,2013-12-02 08:45:00,
2013-12-02 03:46:00,33.0,30.7,30.01,WSW,242,1.0,1.0,91,0.00,,,0.00,Wunderground v.1.12,2013-12-02 08:46:00,
2013-12-02 03:47:00,33.0,30.7,30.01,SW,225,0.0,1.0,91,0.00,,,0.00,Wunderground v.1.12,2013-12-02 08:47:00,
2013-12-02 03:48:00,32.9,30.6,30.01,WSW,244,0.0,1.0,91,0.00,,,0.00,Wunderground v.1.12,2013-12-02 08:48:00,
2013-12-02 03:50:00,32.9,30.6,30.01,WSW,245,0.0,1.0,91,0.00,,,0.00,Wunderground v.1.12,2013-12-02 08:50:00,
2013-12-02 03:51:00,32.9,30.6,30.01,WSW,246,0.0,1.0,91,0.00,,,0.00,Wunderground v.1.12,2013-12-02 08:51:00,
2013-12-02 03:52:00,32.9,30.6,30.01,WSW,246,0.0,1.0,91,0.00,,,0.00,Wunderground v.1.12,2013-12-02 08:52:00,
2013-12-02 03:53:00,32.8,30.7,30.01,WSW,249,0.0,1.0,92,0.00,,,0.00,Wunderground v.1.12,2013-12-02 08:53:00,
2013-12-02 03:56:00,32.8,30.7,30.01,WSW,250,0.0,0.0,92,0.00,,,0.00,Wunderground v.1.12,2013-12-02 08:56:00,
2013-12-02 03:57:00,32.7,30.6,30.01,WSW,250,0.0,0.0,92,0.00,,,0.00,Wunderground v.1.12,2013-12-02 08:57:00,
2013-12-02 03:58:00,32.7,30.6,30.01,WSW,250,0.0,0.0,92,0.00,,,0.00,Wunderground v.1.12,2013-12-02 08:58:00,
2013-12-02 04:01:00,32.8,30.7,30.00,WSW,249,0.0,1.0,92,0.00,,,0.00,Wunderground v.1.12,2013-12-02 09:01:00,
2013-12-02 04:02:00,32.8,30.7,30.00,WSW,248,0.0,1.0,92,0.00,,,0.00,Wunderground v.1.12,2013-12-02 09:02:00,
2013-12-02 04:03:00,32.8,30.7,30.00,WSW,240,0.0,1.0,92,0.00,,,0.00,Wunderground v.1.12,2013-12-02 09:03:00,
2013-12-02 04:04:00,32.8,30.7,30.00,WSW,240,0.0,0.0,92,0.00,,,0.00,Wunderground v.1.12,2013-12-02 09:04:00,
2013-12-02 04:06:00,32.7,30.6,30.00,WSW,242,0.0,1.0,92,0.00,,,0.00,Wunderground v.1.12,2013-12-02 09:06:00,
2013-12-02 04:07:00,32.7,30.6,30.00,WSW,242,0.0,1.0,92,0.00,,,0.00,Wunderground v.1.12,2013-12-02 09:07:00,
2013-12-02 04:08:00,32.7,30.6,30.00,WSW,242,0.0,1.0,92,0.00,,,0.00,Wunderground v.1.12,2013-12-02 09:08:00,
2013-12-02 04:09:00,32.7,30.6,30.00,WSW,242,0.0,0.0,92,0.00,,,0.00,Wunderground v.1.12,2013-12-02 09:09:00,
2013-12-02 04:11:00,32.6,30.5,30.00,WSW,242,0.0,0.0,92,0.00,,,0.00,Wunderground v.1.12,2013-12-02 09:11:00,
2013-12-02 04:12:00,32.5,30.4,30.00,WSW,242,0.0,0.0,92,0.00,,,0.00,Wunderground v.1.12,2013-12-02 09:12:00,
2013-12-02 04:13:00,32.5,30.4,30.00,WSW,245,0.0,0.0,92,0.00,,,0.00,Wunderground v.1.12,2013-12-02 09:13:00,
2013-12-02 04:14:00,32.5,30.4,30.00,WSW,245,0.0,0.0,92,0.00,,,0.00,Wunderground v.1.12,2013-12-02 09:14:00,
2013-12-02 04:16:00,32.5,30.4,30.00,WSW,244,0.0,0.0,92,0.00,,,0.00,Wunderground v.1.12,2013-12-02 09:16:00,
2013-12-02 04:17:00,32.5,30.4,30.00,WSW,245,0.0,0.0,92,0.00,,,0.00,Wunderground v.1.12,2013-12-02 09:17:00,
2013-12-02 04:18:00,32.6,30.5,30.00,WSW,245,0.0,1.0,92,0.00,,,0.00,Wunderground v.1.12,2013-12-02 09:18:00,
2013-12-02 04:19:00,32.6,30.5,30.00,WSW,245,0.0,0.0,92,0.00,,,0.00,Wunderground v.1.12,2013-12-02 09:19:00,
2013-12-02 04:20:00,32.6,30.5,30.00,WSW,244,0.0,0.0,92,0.00,,,0.00,Wunderground v.1.12,2013-12-02 09:20:00,
2013-12-02 04:21:00,32.6,30.5,30.00,WSW,245,0.0,0.0,92,0.00,,,0.00,Wunderground v.1.12,2013-12-02 09:21:00,
2013-12-02 04:22:00,32.6,30.5,30.00,WSW,244,0.0,0.0,92,0.00,,,0.00,Wunderground v.1.12,2013-12-02 09:22:00,
2013-12-02 04:23:00,32.6,30.5,30.00,WSW,244,0.0,0.0,92,0.00,,,0.00,Wunderground v.1.12,2013-12-02 09:23:00,
2013-12-02 04:24:00,32.6,30.5,30.00,WSW,245,0.0,0.0,92,0.00,,,0.00,Wunderground v.1.12,2013-12-02 09:24:00,
2013-12-02 04:25:00,32.6,30.5,30.00,WSW,245,0.0,0.0,92,0.00,,,0.00,Wunderground v.1.12,2013-12-02 09:25:00,
2013-12-02 04:27:00,32.6,30.5,30.00,WSW,244,0.0,0.0,92,0.00,,,0.00,Wunderground v.1.12,2013-12-02 09:27:00,
2013-12-02 04:28:00,32.5,30.4,29.99,WSW,245,0.0,0.0,92,0.00,,,0.00,Wunderground v.1.12,2013-12-02 09:28:00,
2013-12-02 04:29:00,32.5,30.4,30.00,WSW,245,0.0,0.0,92,0.00,,,0.00,Wunderground v.1.12,2013-12-02 09:29:00,
2013-12-02 04:30:00,32.5,30.4,30.00,WSW,245,0.0,1.0,92,0.00,,,0.00,Wunderground v.1.12,2013-12-02 09:30:00,
2013-12-02 04:32:00,32.4,30.3,30.00,WSW,245,0.0,1.0,92,0.00,,,0.00,Wunderground v.1.12,2013-12-02 09:32:00,
2013-12-02 04:33:00,32.4,30.3,30.00,WSW,245,0.0,1.0,92,0.00,,,0.00,Wunderground v.1.12,2013-12-02 09:33:00,
2013-12-02 04:34:00,32.4,30.3,30.00,WSW,245,0.0,0.0,92,0.00,,,0.00,Wunderground v.1.12,2013-12-02 09:34:00,
2013-12-02 04:35:00,32.3,30.2,29.99,WSW,244,0.0,0.0,92,0.00,,,0.00,Wunderground v.1.12,2013-12-02 09:35:00,
2013-12-02 04:37:00,32.3,30.2,30.00,WSW,245,0.0,0.0,92,0.00,,,0.00,Wunderground v.1.12,2013-12-02 09:37:00,
2013-12-02 04:38:00,32.3,30.2,29.99,WSW,245,0.0,1.0,92,0.00,,,0.00,Wunderground v.1.12,2013-12-02 09:38:00,
2013-12-02 04:39:00,32.3,30.2,29.99,WSW,244,0.0,0.0,92,0.00,,,0.00,Wunderground v.1.12,2013-12-02 09:39:00,
2013-12-02 04:40:00,32.3,30.2,29.99,WSW,245,0.0,0.0,92,0.00,,,0.00,Wunderground v.1.12,2013-12-02 09:40:00,
2013-12-02 04:42:00,32.2,30.1,29.99,WSW,245,0.0,0.0,92,0.00,,,0.00,Wunderground v.1.12,2013-12-02 09:42:00,
2013-12-02 04:43:00,32.2,30.1,29.99,WSW,244,0.0,0.0,92,0.00,,,0.00,Wunderground v.1.12,2013-12-02 09:43:00,
2013-12-02 04:44:00,32.1,30.0,29.99,WSW,245,0.0,0.0,92,0.00,,,0.00,Wunderground v.1.12,2013-12-02 09:44:00,
2013-12-02 04:45:00,32.0,29.9,29.99,WSW,244,0.0,0.0,92,0.00,,,0.00,Wunderground v.1.12,2013-12-02 09:45:00,
2013-12-02 04:47:00,31.9,29.8,29.99,WSW,245,1.0,1.0,92,0.00,,,0.00,Wunderground v.1.12,2013-12-02 09:47:00,
2013-12-02 04:48:00,31.8,29.7,29.99,WSW,244,1.0,1.0,92,0.00,,,0.00,Wunderground v.1.12,2013-12-02 09:48:00,
2013-12-02 04:49:00,31.8,29.7,29.99,WSW,245,0.0,0.0,92,0.00,,,0.00,Wunderground v.1.12,2013-12-02 09:49:00,
2013-12-02 04:50:00,31.7,29.9,29.99,WSW,245,0.0,0.0,93,0.00,,,0.00,Wunderground v.1.12,2013-12-02 09:50:00,
2013-12-02 04:52:00,31.5,29.7,29.99,WSW,243,1.0,1.0,93,0.00,,,0.00,Wunderground v.1.12,2013-12-02 09:52:00,
2013-12-02 04:53:00,31.4,29.6,29.99,WSW,242,1.0,1.0,93,0.00,,,0.00,Wunderground v.1.12,2013-12-02 09:53:00,
2013-12-02 04:54:00,31.4,29.6,29.99,WSW,242,0.0,1.0,93,0.00,,,0.00,Wunderground v.1.12,2013-12-02 09:54:00,
2013-12-02 04:55:00,31.4,29.6,29.99,WSW,242,0.0,1.0,93,0.00,,,0.00,Wunderground v.1.12,2013-12-02 09:55:00,
2013-12-02 04:57:00,31.2,29.4,29.99,WSW,258,1.0,1.0,93,0.00,,,0.00,Wunderground v.1.12,2013-12-02 09:57:00,
2013-12-02 04:58:00,31.2,29.7,29.99,WSW,258,0.0,1.0,94,0.00,,,0.00,Wunderground v.1.12,2013-12-02 09:58:00,
2013-12-02 04:59:00,31.2,29.7,29.98,WSW,258,0.0,1.0,94,0.00,,,0.00,Wunderground v.1.12,2013-12-02 09:59:00,
2013-12-02 05:00:00,31.1,29.3,29.98,WSW,258,0.0,1.0,93,0.00,,,0.00,Wunderground v.1.12,2013-12-02 10:00:00,
2013-12-02 05:02:00,31.0,29.2,29.98,WSW,238,0.0,1.0,93,0.00,,,0.00,Wunderground v.1.12,2013-12-02 10:02:00,
2013-12-02 05:03:00,31.0,29.2,29.98,WSW,238,0.0,1.0,93,0.00,,,0.00,Wunderground v.1.12,2013-12-02 10:03:00,
2013-12-02 05:04:00,30.9,29.1,29.98,WSW,239,0.0,0.0,93,0.00,,,0.00,Wunderground v.1.12,2013-12-02 10:04:00,
2013-12-02 05:05:00,30.9,29.1,29.98,WSW,240,0.0,0.0,93,0.00,,,0.00,Wunderground v.1.12,2013-12-02 10:05:00,
2013-12-02 05:07:00,30.8,29.0,29.98,WSW,248,0.0,1.0,93,0.00,,,0.00,Wunderground v.1.12,2013-12-02 10:07:00,
2013-12-02 05:08:00,30.8,29.3,29.98,WSW,248,0.0,1.0,94,0.00,,,0.00,Wunderground v.1.12,2013-12-02 10:08:00,
2013-12-02 05:09:00,30.8,29.3,29.98,West,270,0.0,0.0,94,0.00,,,0.00,Wunderground v.1.12,2013-12-02 10:09:00,
2013-12-02 05:10:00,30.8,29.3,29.99,WNW,285,1.0,1.0,94,0.00,,,0.00,Wunderground v.1.12,2013-12-02 10:10:00,
2013-12-02 05:11:00,30.9,29.4,29.98,WNW,297,1.0,2.0,94,0.00,,,0.00,Wunderground v.1.12,2013-12-02 10:11:00,
2013-12-02 05:12:00,31.2,29.7,29.99,WNW,300,1.0,2.0,94,0.00,,,0.00,Wunderground v.1.12,2013-12-02 10:12:00,
2013-12-02 05:13:00,31.2,29.7,29.99,WNW,300,1.0,2.0,94,0.00,,,0.00,Wunderground v.1.12,2013-12-02 10:13:00,
2013-12-02 05:14:00,31.5,29.7,29.99,WNW,300,1.0,1.0,93,0.00,,,0.00,Wunderground v.1.12,2013-12-02 10:14:00,
2013-12-02 05:15:00,31.6,29.8,29.99,WNW,300,0.0,1.0,93,0.00,,,0.00,Wunderground v.1.12,2013-12-02 10:15:00,
2013-12-02 05:16:00,31.7,29.9,29.99,WNW,300,0.0,1.0,93,0.00,,,0.00,Wunderground v.1.12,2013-12-02 10:16:00,
2013-12-02 05:17:00,31.7,29.6,29.99,WNW,300,0.0,1.0,92,0.00,,,0.00,Wunderground v.1.12,2013-12-02 10:17:00,
2013-12-02 05:18:00,31.7,29.4,29.99,WNW,300,0.0,1.0,91,0.00,,,0.00,Wunderground v.1.12,2013-12-02 10:18:00,
2013-12-02 05:19:00,31.6,29.3,29.99,WNW,300,0.0,1.0,91,0.00,,,0.00,Wunderground v.1.12,2013-12-02 10:19:00,
2013-12-02 05:20:00,31.5,28.9,29.99,WNW,300,0.0,1.0,90,0.00,,,0.00,Wunderground v.1.12,2013-12-02 10:20:00,
2013-12-02 05:21:00,31.4,28.8,29.99,WNW,297,0.0,1.0,90,0.00,,,0.00,Wunderground v.1.12,2013-12-02 10:21:00,
2013-12-02 05:22:00,31.2,28.9,29.99,West,269,0.0,1.0,91,0.00,,,0.00,Wunderground v.1.12,2013-12-02 10:22:00,
2013-12-02 05:23:00,31.1,28.8,29.99,West,268,0.0,1.0,91,0.00,,,0.00,Wunderground v.1.12,2013-12-02 10:23:00,
2013-12-02 05:24:00,31.0,28.7,29.99,SW,232,0.0,0.0,91,0.00,,,0.00,Wunderground v.1.12,2013-12-02 10:24:00,
2013-12-02 05:26:00,30.9,28.6,29.99,SW,233,0.0,1.0,91,0.00,,,0.00,Wunderground v.1.12,2013-12-02 10:26:00,
2013-12-02 05:27:00,30.6,28.3,29.99,SW,231,0.0,1.0,91,0.00,,,0.00,Wunderground v.1.12,2013-12-02 10:27:00,
2013-12-02 05:28:00,30.5,28.2,29.99,SW,232,0.0,1.0,91,0.00,,,0.00,Wunderground v.1.12,2013-12-02 10:28:00,
2013-12-02 05:29:00,30.4,28.4,29.99,SW,232,1.0,1.0,92,0.00,,,0.00,Wunderground v.1.12,2013-12-02 10:29:00,
2013-12-02 05:31:00,30.3,28.3,29.99,SW,232,1.0,1.0,92,0.00,,,0.00,Wunderground v.1.12,2013-12-02 10:31:00,
2013-12-02 05:32:00,30.1,28.1,29.99,SW,232,0.0,1.0,92,0.00,,,0.00,Wunderground v.1.12,2013-12-02 10:32:00,
2013-12-02 05:33:00,30.0,28.2,29.99,SW,232,0.0,1.0,93,0.00,,,0.00,Wunderground v.1.12,2013-12-02 10:33:00,
2013-12-02 05:35:00,29.9,28.1,29.99,SW,232,0.0,0.0,93,0.00,,,0.00,Wunderground v.1.12,2013-12-02 10:35:00,
2013-12-02 05:36:00,29.8,28.0,29.99,SW,232,0.0,0.0,93,0.00,,,0.00,Wunderground v.1.12,2013-12-02 10:36:00,
2013-12-02 05:37:00,29.7,27.9,29.99,SW,232,0.0,0.0,93,0.00,,,0.00,Wunderground v.1.12,2013-12-02 10:37:00,
2013-12-02 05:38:00,29.6,27.8,29.99,SW,232,0.0,0.0,93,0.00,,,0.00,Wunderground v.1.12,2013-12-02 10:38:00,
2013-12-02 05:40:00,29.5,27.7,29.99,SW,232,0.0,0.0,93,0.00,,,0.00,Wunderground v.1.12,2013-12-02 10:40:00,
2013-12-02 05:41:00,29.5,28.0,29.99,SW,232,0.0,0.0,94,0.00,,,0.00,Wunderground v.1.12,2013-12-02 10:41:00,
2013-12-02 05:43:00,29.5,28.0,29.99,SW,233,0.0,0.0,94,0.00,,,0.00,Wunderground v.1.12,2013-12-02 10:43:00,
2013-12-02 05:44:00,29.4,27.9,29.99,SW,232,0.0,0.0,94,0.00,,,0.00,Wunderground v.1.12,2013-12-02 10:44:00,
2013-12-02 05:45:00,29.4,27.9,29.99,SW,232,0.0,0.0,94,0.00,,,0.00,Wunderground v.1.12,2013-12-02 10:45:00,
2013-12-02 05:46:00,29.5,28.0,29.99,SW,232,0.0,0.0,94,0.00,,,0.00,Wunderground v.1.12,2013-12-02 10:46:00,
2013-12-02 05:47:00,29.5,28.0,29.99,SW,232,0.0,0.0,94,0.00,,,0.00,Wunderground v.1.12,2013-12-02 10:47:00,
2013-12-02 05:48:00,29.5,28.0,29.99,SW,232,0.0,0.0,94,0.00,,,0.00,Wunderground v.1.12,2013-12-02 10:48:00,
2013-12-02 05:49:00,29.5,28.2,29.99,SW,232,0.0,0.0,95,0.00,,,0.00,Wunderground v.1.12,2013-12-02 10:49:00,
2013-12-02 05:50:00,29.5,28.2,29.99,SW,232,0.0,0.0,95,0.00,,,0.00,Wunderground v.1.12,2013-12-02 10:50:00,
2013-12-02 05:52:00,29.5,28.2,29.99,SW,232,0.0,0.0,95,0.00,,,0.00,Wunderground v.1.12,2013-12-02 10:52:00,
2013-12-02 05:53:00,29.6,28.3,29.99,SW,233,0.0,0.0,95,0.00,,,0.00,Wunderground v.1.12,2013-12-02 10:53:00,
2013-12-02 05:54:00,29.6,28.3,29.99,SW,232,0.0,0.0,95,0.00,,,0.00,Wunderground v.1.12,2013-12-02 10:54:00,
2013-12-02 05:55:00,29.6,28.3,29.99,SW,232,0.0,0.0,95,0.00,,,0.00,Wunderground v.1.12,2013-12-02 10:55:00,
2013-12-02 05:57:00,29.7,28.4,29.99,SW,232,0.0,0.0,95,0.00,,,0.00,Wunderground v.1.12,2013-12-02 10:57:00,
2013-12-02 05:58:00,29.8,28.5,29.99,SW,232,0.0,0.0,95,0.00,,,0.00,Wunderground v.1.12,2013-12-02 10:58:00,
2013-12-02 05:59:00,29.8,28.5,29.99,SW,232,0.0,0.0,95,0.00,,,0.00,Wunderground v.1.12,2013-12-02 10:59:00,
2013-12-02 06:00:00,29.8,28.5,29.99,SW,232,0.0,0.0,95,0.00,,,0.00,Wunderground v.1.12,2013-12-02 11:00:00,
2013-12-02 06:02:00,29.9,28.6,29.99,SW,232,0.0,0.0,95,0.00,,,0.00,Wunderground v.1.12,2013-12-02 11:02:00,
2013-12-02 06:03:00,29.9,28.6,29.99,SW,232,0.0,0.0,95,0.00,,,0.00,Wunderground v.1.12,2013-12-02 11:03:00,
2013-12-02 06:04:00,30.0,29.0,29.99,SW,231,0.0,0.0,96,0.00,,,0.00,Wunderground v.1.12,2013-12-02 11:04:00,
2013-12-02 06:05:00,30.0,29.0,29.99,SW,231,0.0,0.0,96,0.00,,,0.00,Wunderground v.1.12,2013-12-02 11:05:00,
2013-12-02 06:07:00,30.1,29.1,29.99,SW,232,0.0,0.0,96,0.00,,,0.00,Wunderground v.1.12,2013-12-02 11:07:00,
2013-12-02 06:08:00,30.1,29.1,29.99,SW,232,0.0,0.0,96,0.00,,,0.00,Wunderground v.1.12,2013-12-02 11:08:00,
2013-12-02 06:09:00,30.1,29.1,29.99,SW,232,0.0,0.0,96,0.00,,,0.00,Wunderground v.1.12,2013-12-02 11:09:00,
2013-12-02 06:10:00,30.1,28.8,29.99,SW,232,0.0,0.0,95,0.00,,,0.00,Wunderground v.1.12,2013-12-02 11:10:00,
2013-12-02 06:12:00,30.2,28.9,29.99,SW,232,0.0,0.0,95,0.00,,,0.00,Wunderground v.1.12,2013-12-02 11:12:00,
2013-12-02 06:13:00,30.2,28.9,29.99,SW,232,0.0,0.0,95,0.00,,,0.00,Wunderground v.1.12,2013-12-02 11:13:00,
2013-12-02 06:14:00,30.2,28.9,29.99,SW,232,0.0,0.0,95,0.00,,,0.00,Wunderground v.1.12,2013-12-02 11:14:00,
2013-12-02 06:15:00,30.2,28.9,29.99,SW,232,0.0,0.0,95,0.00,,,0.00,Wunderground v.1.12,2013-12-02 11:15:00,
2013-12-02 06:16:00,30.2,28.9,29.99,SW,232,0.0,0.0,95,0.00,,,0.00,Wunderground v.1.12,2013-12-02 11:16:00,
2013-12-02 06:17:00,30.2,28.9,29.99,SW,232,0.0,0.0,95,0.00,,,0.00,Wunderground v.1.12,2013-12-02 11:17:00,
2013-12-02 06:18:00,30.2,28.9,29.99,SW,231,0.0,0.0,95,0.00,,,0.00,Wunderground v.1.12,2013-12-02 11:18:00,
2013-12-02 06:20:00,30.3,29.0,29.99,SW,232,0.0,0.0,95,0.00,,,0.00,Wunderground v.1.12,2013-12-02 11:20:00,
2013-12-02 06:21:00,30.3,29.0,29.99,SW,232,0.0,0.0,95,0.00,,,0.00,Wunderground v.1.12,2013-12-02 11:21:00,
2013-12-02 06:22:00,30.3,29.3,29.99,SW,231,0.0,0.0,96,0.00,,,0.00,Wunderground v.1.12,2013-12-02 11:22:00,
2013-12-02 06:23:00,30.3,29.3,29.99,SW,232,0.0,0.0,96,0.00,,,0.00,Wunderground v.1.12,2013-12-02 11:23:00,
2013-12-02 06:25:00,30.4,29.4,29.99,SW,231,0.0,0.0,96,0.00,,,0.00,Wunderground v.1.12,2013-12-02 11:25:00,
2013-12-02 06:26:00,30.4,29.4,29.99,SW,231,0.0,0.0,96,0.00,,,0.00,Wunderground v.1.12,2013-12-02 11:26:00,
2013-12-02 06:27:00,30.4,29.4,29.99,SW,232,0.0,0.0,96,0.00,,,0.00,Wunderground v.1.12,2013-12-02 11:27:00,
2013-12-02 06:28:00,30.4,29.4,29.99,SW,232,0.0,1.0,96,0.00,,,0.00,Wunderground v.1.12,2013-12-02 11:28:00,
2013-12-02 06:30:00,30.4,29.1,29.99,SW,231,0.0,0.0,95,0.00,,,0.00,Wunderground v.1.12,2013-12-02 11:30:00,
2013-12-02 06:31:00,30.4,29.1,29.99,SW,230,0.0,0.0,95,0.00,,,0.00,Wunderground v.1.12,2013-12-02 11:31:00,
2013-12-02 06:33:00,30.4,29.4,29.99,SW,232,0.0,1.0,96,0.00,,,0.00,Wunderground v.1.12,2013-12-02 11:33:00,
2013-12-02 06:35:00,30.4,29.1,29.99,SW,232,0.0,1.0,95,0.00,,,0.00,Wunderground v.1.12,2013-12-02 11:35:00,
2013-12-02 06:36:00,30.4,29.1,29.99,SW,232,0.0,1.0,95,0.00,,,0.00,Wunderground v.1.12,2013-12-02 11:36:00,
2013-12-02 06:38:00,30.3,29.0,29.98,SW,233,0.0,1.0,95,0.00,,,0.00,Wunderground v.1.12,2013-12-02 11:38:00,
2013-12-02 06:41:00,30.3,29.0,29.99,SW,233,0.0,0.0,95,0.00,,,0.00,Wunderground v.1.12,2013-12-02 11:41:00,
2013-12-02 06:43:00,30.2,28.9,29.98,SW,233,0.0,0.0,95,0.00,,,0.00,Wunderground v.1.12,2013-12-02 11:43:00,
2013-12-02 06:46:00,30.1,28.8,29.98,SW,233,1.0,1.0,95,0.00,,,0.00,Wunderground v.1.12,2013-12-02 11:46:00,
2013-12-02 06:48:00,30.0,28.7,29.98,SW,233,0.0,1.0,95,0.00,,,0.00,Wunderground v.1.12,2013-12-02 11:48:00,
2013-12-02 06:51:00,29.9,28.6,29.99,WSW,254,0.0,1.0,95,0.00,,,0.00,Wunderground v.1.12,2013-12-02 11:51:00,
2013-12-02 06:53:00,29.9,28.6,29.99,WSW,256,0.0,1.0,95,0.00,,,0.00,Wunderground v.1.12,2013-12-02 11:53:00,
2013-12-02 06:54:00,29.9,28.6,29.98,West,260,1.0,1.0,95,0.00,,,0.00,Wunderground v.1.12,2013-12-02 11:54:00,
2013-12-02 06:56:00,29.9,28.9,29.98,West,260,0.0,1.0,96,0.00,,,0.00,Wunderground v.1.12,2013-12-02 11:56:00,
2013-12-02 06:57:00,29.9,28.9,29.99,West,278,1.0,1.0,96,0.00,,,0.00,Wunderground v.1.12,2013-12-02 11:57:00,
2013-12-02 06:58:00,30.0,29.0,29.99,West,272,1.0,1.0,96,0.00,,,0.00,Wunderground v.1.12,2013-12-02 11:58:00,
2013-12-02 06:59:00,30.0,29.0,29.99,West,263,1.0,1.0,96,0.00,,,0.00,Wunderground v.1.12,2013-12-02 11:59:00,
2013-12-02 07:01:00,30.0,29.0,29.99,WSW,255,0.0,1.0,96,0.00,,,0.00,Wunderground v.1.12,2013-12-02 12:01:00,
2013-12-02 07:02:00,30.0,29.0,29.98,WSW,254,0.0,1.0,96,0.00,,,0.00,Wunderground v.1.12,2013-12-02 12:02:00,
2013-12-02 07:03:00,30.0,28.7,29.98,WSW,254,0.0,1.0,95,0.00,,,0.00,Wunderground v.1.12,2013-12-02 12:03:00,
2013-12-02 07:04:00,29.9,28.6,29.98,WSW,255,0.0,0.0,95,0.00,,,0.00,Wunderground v.1.12,2013-12-02 12:04:00,
2013-12-02 07:06:00,29.9,28.6,29.99,WSW,255,0.0,0.0,95,0.00,,,0.00,Wunderground v.1.12,2013-12-02 12:06:00,
2013-12-02 07:07:00,29.9,28.6,29.98,WSW,255,0.0,0.0,95,0.00,,,0.00,Wunderground v.1.12,2013-12-02 12:07:00,
2013-12-02 07:08:00,29.8,28.5,29.98,WSW,254,0.0,0.0,95,0.00,,,0.00,Wunderground v.1.12,2013-12-02 12:08:00,
2013-12-02 07:09:00,29.8,28.5,29.98,WSW,255,0.0,0.0,95,0.00,,,0.00,Wunderground v.1.12,2013-12-02 12:09:00,
2013-12-02 07:12:00,29.8,28.5,29.99,SW,233,1.0,1.0,95,0.00,,,0.00,Wunderground v.1.12,2013-12-02 12:12:00,
2013-12-02 07:13:00,29.7,28.4,29.99,WSW,240,0.0,1.0,95,0.00,,,0.00,Wunderground v.1.12,2013-12-02 12:13:00,
2013-12-02 07:14:00,29.6,28.3,29.98,WSW,240,0.0,0.0,95,0.00,,,0.00,Wunderground v.1.12,2013-12-02 12:14:00,
2013-12-02 07:17:00,29.4,28.1,29.98,WSW,240,0.0,1.0,95,0.00,,,0.00,Wunderground v.1.12,2013-12-02 12:17:00,
2013-12-02 07:18:00,29.3,28.0,29.99,West,260,0.0,1.0,95,0.00,,,0.00,Wunderground v.1.12,2013-12-02 12:18:00,
2013-12-02 07:19:00,29.3,28.0,29.98,West,260,0.0,0.0,95,0.00,,,0.00,Wunderground v.1.12,2013-12-02 12:19:00,
2013-12-02 07:20:00,29.3,28.0,29.98,West,260,0.0,1.0,95,0.00,,,0.00,Wunderground v.1.12,2013-12-02 12:20:00,
2013-12-02 07:22:00,29.3,28.0,29.98,West,260,0.0,1.0,95,0.00,,,0.00,Wunderground v.1.12,2013-12-02 12:22:00,
2013-12-02 07:23:00,29.3,28.0,29.98,West,260,0.0,1.0,95,0.00,,,0.00,Wunderground v.1.12,2013-12-02 12:23:00,
2013-12-02 07:24:00,29.4,28.1,29.98,West,260,0.0,0.0,95,0.00,,,0.00,Wunderground v.1.12,2013-12-02 12:24:00,
2013-12-02 07:25:00,29.4,28.1,29.99,West,260,0.0,0.0,95,0.00,,,0.00,Wunderground v.1.12,2013-12-02 12:25:00,
2013-12-02 07:27:00,29.4,28.1,29.99,West,260,0.0,0.0,95,0.00,,,0.00,Wunderground v.1.12,2013-12-02 12:27:00,
2013-12-02 07:28:00,29.4,28.1,29.99,West,260,0.0,0.0,95,0.00,,,0.00,Wunderground v.1.12,2013-12-02 12:28:00,
2013-12-02 07:29:00,29.3,28.0,29.99,West,260,0.0,0.0,95,0.00,,,0.00,Wunderground v.1.12,2013-12-02 12:29:00,
2013-12-02 07:30:00,29.3,28.0,29.99,West,260,0.0,0.0,95,0.00,,,0.00,Wunderground v.1.12,2013-12-02 12:30:00,
2013-12-02 07:32:00,29.2,27.9,29.99,West,260,0.0,1.0,95,0.00,,,0.00,Wunderground v.1.12,2013-12-02 12:32:00,
2013-12-02 07:33:00,29.1,27.8,29.99,SW,214,0.0,1.0,95,0.00,,,0.00,Wunderground v.1.12,2013-12-02 12:33:00,
2013-12-02 07:34:00,29.1,27.8,29.99,SW,214,0.0,0.0,95,0.00,,,0.00,Wunderground v.1.12,2013-12-02 12:34:00,
2013-12-02 07:35:00,29.0,27.7,29.99,SW,214,0.0,0.0,95,0.00,,,0.00,Wunderground v.1.12,2013-12-02 12:35:00,
2013-12-02 07:38:00,29.0,27.7,29.99,SW,219,0.0,0.0,95,0.00,,,0.00,Wunderground v.1.12,2013-12-02 12:38:00,
2013-12-02 07:39:00,28.9,27.6,29.99,SW,219,0.0,0.0,95,0.00,,,0.00,Wunderground v.1.12,2013-12-02 12:39:00,
2013-12-02 07:40:00,28.8,27.5,29.99,SW,219,0.0,0.0,95,0.00,,,0.00,Wunderground v.1.12,2013-12-02 12:40:00,
2013-12-02 07:43:00,28.8,27.5,29.99,SW,219,0.0,0.0,95,0.00,,,0.00,Wunderground v.1.12,2013-12-02 12:43:00,
2013-12-02 07:44:00,28.8,27.5,29.99,SW,219,0.0,0.0,95,0.00,,,0.00,Wunderground v.1.12,2013-12-02 12:44:00,
2013-12-02 07:45:00,28.8,27.5,29.99,SW,219,0.0,0.0,95,0.00,,,0.00,Wunderground v.1.12,2013-12-02 12:45:00,
2013-12-02 07:47:00,28.8,27.8,29.99,SW,219,0.0,0.0,96,0.00,,,0.00,Wunderground v.1.12,2013-12-02 12:47:00,
2013-12-02 07:48:00,28.7,27.7,29.99,SW,219,0.0,0.0,96,0.00,,,0.00,Wunderground v.1.12,2013-12-02 12:48:00,
2013-12-02 07:49:00,28.7,27.7,29.99,SW,219,0.0,0.0,96,0.00,,,0.00,Wunderground v.1.12,2013-12-02 12:49:00,
2013-12-02 07:50:00,28.7,27.7,29.99,SW,219,0.0,0.0,96,0.00,,,0.00,Wunderground v.1.12,2013-12-02 12:50:00,
2013-12-02 07:52:00,28.6,27.6,29.99,SW,219,0.0,0.0,96,0.00,,,0.00,Wunderground v.1.12,2013-12-02 12:52:00,
2013-12-02 07:54:00,28.6,27.6,29.99,SW,219,0.0,0.0,96,0.00,,,0.00,Wunderground v.1.12,2013-12-02 12:54:00,
2013-12-02 07:55:00,28.6,27.6,29.99,SW,219,0.0,0.0,96,0.00,,,0.00,Wunderground v.1.12,2013-12-02 12:55:00,
2013-12-02 07:58:00,28.7,27.7,29.99,SW,231,0.0,0.0,96,0.00,,,0.00,Wunderground v.1.12,2013-12-02 12:58:00,
2013-12-02 07:59:00,28.7,27.7,29.99,WSW,240,0.0,0.0,96,0.00,,,0.00,Wunderground v.1.12,2013-12-02 12:59:00,
2013-12-02 08:00:00,28.7,27.7,29.99,WSW,240,0.0,0.0,96,0.00,,,0.00,Wunderground v.1.12,2013-12-02 13:00:00,
2013-12-02 08:01:00,28.7,27.7,29.99,WSW,240,0.0,0.0,96,0.00,,,0.00,Wunderground v.1.12,2013-12-02 13:01:00,
2013-12-02 08:03:00,28.7,27.7,29.99,WSW,240,0.0,0.0,96,0.00,,,0.00,Wunderground v.1.12,2013-12-02 13:03:00,
2013-12-02 08:04:00,28.7,27.7,29.99,WSW,240,0.0,0.0,96,0.00,,,0.00,Wunderground v.1.12,2013-12-02 13:04:00,
2013-12-02 08:05:00,28.7,27.7,29.99,WSW,240,0.0,0.0,96,0.00,,,0.00,Wunderground v.1.12,2013-12-02 13:05:00,
2013-12-02 08:06:00,28.8,27.8,29.99,WSW,240,0.0,0.0,96,0.00,,,0.00,Wunderground v.1.12,2013-12-02 13:06:00,
2013-12-02 08:08:00,28.9,27.9,29.99,WSW,258,0.0,0.0,96,0.00,,,0.00,Wunderground v.1.12,2013-12-02 13:08:00,
2013-12-02 08:09:00,29.0,28.0,29.99,WSW,258,0.0,0.0,96,0.00,,,0.00,Wunderground v.1.12,2013-12-02 13:09:00,
2013-12-02 08:10:00,29.0,28.0,29.99,WSW,257,0.0,0.0,96,0.00,,,0.00,Wunderground v.1.12,2013-12-02 13:10:00,
2013-12-02 08:11:00,29.2,28.2,29.99,West,259,0.0,0.0,96,0.00,,,0.00,Wunderground v.1.12,2013-12-02 13:11:00,
2013-12-02 08:13:00,29.3,28.6,29.99,WSW,249,0.0,0.0,97,0.00,,,0.00,Wunderground v.1.12,2013-12-02 13:13:00,
2013-12-02 08:14:00,29.4,28.7,29.99,WSW,249,0.0,0.0,97,0.00,,,0.00,Wunderground v.1.12,2013-12-02 13:14:00,
2013-12-02 08:15:00,29.5,28.8,29.99,WSW,248,0.0,0.0,97,0.00,,,0.00,Wunderground v.1.12,2013-12-02 13:15:00,
2013-12-02 08:16:00,29.5,28.8,29.99,SW,232,0.0,0.0,97,0.00,,,0.00,Wunderground v.1.12,2013-12-02 13:16:00,
2013-12-02 08:18:00,29.6,28.9,29.99,SW,233,0.0,0.0,97,0.00,,,0.00,Wunderground v.1.12,2013-12-02 13:18:00,
2013-12-02 08:19:00,29.7,29.0,29.99,SW,236,0.0,0.0,97,0.00,,,0.00,Wunderground v.1.12,2013-12-02 13:19:00,
2013-12-02 08:20:00,29.7,29.0,29.99,SW,236,0.0,0.0,97,0.00,,,0.00,Wunderground v.1.12,2013-12-02 13:20:00,
2013-12-02 08:21:00,29.8,29.1,29.99,SW,236,0.0,0.0,97,0.00,,,0.00,Wunderground v.1.12,2013-12-02 13:21:00,
2013-12-02 08:23:00,29.9,29.2,29.99,WSW,240,1.0,1.0,97,0.00,,,0.00,Wunderground v.1.12,2013-12-02 13:23:00,
2013-12-02 08:24:00,30.0,29.3,29.99,WSW,240,1.0,1.0,97,0.00,,,0.00,Wunderground v.1.12,2013-12-02 13:24:00,
2013-12-02 08:25:00,30.0,29.3,29.99,WSW,240,1.0,1.0,97,0.00,,,0.00,Wunderground v.1.12,2013-12-02 13:25:00,
2013-12-02 08:26:00,30.1,29.4,29.99,WSW,240,1.0,1.0,97,0.00,,,0.00,Wunderground v.1.12,2013-12-02 13:26:00,
2013-12-02 08:28:00,30.2,29.5,29.99,WSW,242,1.0,2.0,97,0.00,,,0.00,Wunderground v.1.12,2013-12-02 13:28:00,
2013-12-02 08:29:00,30.3,29.6,29.99,WSW,240,0.0,1.0,97,0.00,,,0.00,Wunderground v.1.12,2013-12-02 13:29:00,
2013-12-02 08:30:00,30.3,29.6,29.99,WSW,240,0.0,1.0,97,0.00,,,0.00,Wunderground v.1.12,2013-12-02 13:30:00,
2013-12-02 08:31:00,30.4,29.7,29.99,WSW,240,0.0,1.0,97,0.00,,,0.00,Wunderground v.1.12,2013-12-02 13:31:00,
2013-12-02 08:32:00,30.4,29.7,29.98,WSW,240,0.0,1.0,97,0.00,,,0.00,Wunderground v.1.12,2013-12-02 13:32:00,
2013-12-02 08:33:00,30.5,29.8,29.98,WSW,240,0.0,1.0,97,0.00,,,0.00,Wunderground v.1.12,2013-12-02 13:33:00,
2013-12-02 08:34:00,30.6,29.9,29.99,WSW,240,1.0,1.0,97,0.00,,,0.00,Wunderground v.1.12,2013-12-02 13:34:00,
2013-12-02 08:35:00,30.6,29.6,29.99,WSW,240,0.0,1.0,96,0.00,,,0.00,Wunderground v.1.12,2013-12-02 13:35:00,
2013-12-02 08:37:00,30.7,29.7,29.99,WSW,240,1.0,1.0,96,0.00,,,0.00,Wunderground v.1.12,2013-12-02 13:37:00,
2013-12-02 08:38:00,30.8,29.8,29.99,WSW,240,1.0,1.0,96,0.00,,,0.00,Wunderground v.1.12,2013-12-02 13:38:00,
2013-12-02 08:40:00,30.9,29.9,29.98,WSW,240,1.0,1.0,96,0.00,,,0.00,Wunderground v.1.12,2013-12-02 13:40:00,
2013-12-02 08:42:00,31.0,30.0,29.98,WSW,240,1.0,1.0,96,0.00,,,0.00,Wunderground v.1.12,2013-12-02 13:42:00,
2013-12-02 08:43:00,31.1,30.1,29.98,WSW,239,1.0,1.0,96,0.00,,,0.00,Wunderground v.1.12,2013-12-02 13:43:00,
2013-12-02 08:45:00,31.2,30.2,29.98,WSW,240,1.0,1.0,96,0.00,,,0.00,Wunderground v.1.12,2013-12-02 13:45:00,
2013-12-02 08:47:00,31.3,30.3,29.98,WSW,239,0.0,1.0,96,0.00,,,0.00,Wunderground v.1.12,2013-12-02 13:47:00,
2013-12-02 08:48:00,31.3,30.3,29.98,WSW,239,0.0,1.0,96,0.00,,,0.00,Wunderground v.1.12,2013-12-02 13:48:00,
2013-12-02 08:50:00,31.5,30.5,29.98,WSW,257,0.0,1.0,96,0.00,,,0.00,Wunderground v.1.12,2013-12-02 13:50:00,
2013-12-02 08:52:00,31.7,30.7,29.98,WSW,258,0.0,1.0,96,0.00,,,0.00,Wunderground v.1.12,2013-12-02 13:52:00,
2013-12-02 08:53:00,31.8,30.8,29.98,WSW,257,0.0,1.0,96,0.00,,,0.00,Wunderground v.1.12,2013-12-02 13:53:00,
2013-12-02 08:54:00,31.9,30.9,29.98,WSW,257,0.0,1.0,96,0.00,,,0.00,Wunderground v.1.12,2013-12-02 13:54:00,
2013-12-02 08:55:00,32.0,31.0,29.98,West,259,0.0,1.0,96,0.00,,,0.00,Wunderground v.1.12,2013-12-02 13:55:00,
2013-12-02 08:57:00,32.5,31.5,29.98,West,259,0.0,1.0,96,0.00,,,0.00,Wunderground v.1.12,2013-12-02 13:57:00,
2013-12-02 08:58:00,32.5,31.5,29.98,WSW,258,0.0,1.0,96,0.00,,,0.00,Wunderground v.1.12,2013-12-02 13:58:00,
2013-12-02 08:59:00,32.8,31.8,29.98,WNW,290,0.0,2.0,96,0.00,,,0.00,Wunderground v.1.12,2013-12-02 13:59:00,
2013-12-02 09:00:00,33.0,32.0,29.99,West,278,0.0,2.0,96,0.00,,,0.00,Wunderground v.1.12,2013-12-02 14:00:00,
2013-12-02 09:01:00,33.2,31.9,29.98,West,278,0.0,2.0,95,0.00,,,0.00,Wunderground v.1.12,2013-12-02 14:01:00,
2013-12-02 09:03:00,33.7,32.2,29.99,WSW,258,1.0,2.0,94,0.00,,,0.00,Wunderground v.1.12,2013-12-02 14:03:00,
2013-12-02 09:04:00,33.9,32.1,29.99,WSW,249,1.0,1.0,93,0.00,,,0.00,Wunderground v.1.12,2013-12-02 14:04:00,
2013-12-02 09:05:00,34.1,32.3,29.99,WSW,249,1.0,1.0,93,0.00,,,0.00,Wunderground v.1.12,2013-12-02 14:05:00,
2013-12-02 09:06:00,34.2,32.4,29.99,SW,230,0.0,1.0,93,0.00,,,0.00,Wunderground v.1.12,2013-12-02 14:06:00,
2013-12-02 09:08:00,34.5,32.1,29.99,WSW,239,1.0,2.0,91,0.00,,,0.00,Wunderground v.1.12,2013-12-02 14:08:00,
2013-12-02 09:09:00,34.7,32.3,29.98,SW,218,0.0,3.0,91,0.00,,,0.00,Wunderground v.1.12,2013-12-02 14:09:00,
2013-12-02 09:10:00,34.7,32.1,29.98,WSW,250,1.0,3.0,90,0.00,,,0.00,Wunderground v.1.12,2013-12-02 14:10:00,
2013-12-02 09:11:00,34.8,32.2,29.98,WSW,240,1.0,3.0,90,0.00,,,0.00,Wunderground v.1.12,2013-12-02 14:11:00,
2013-12-02 09:13:00,35.1,32.2,29.98,SW,231,1.0,3.0,89,0.00,,,0.00,Wunderground v.1.12,2013-12-02 14:13:00,
2013-12-02 09:14:00,35.2,32.0,29.98,SW,233,1.0,1.0,88,0.00,,,0.00,Wunderground v.1.12,2013-12-02 14:14:00,
2013-12-02 09:15:00,35.3,32.1,29.98,WSW,248,1.0,1.0,88,0.00,,,0.00,Wunderground v.1.12,2013-12-02 14:15:00,
2013-12-02 09:16:00,35.3,32.1,29.98,WSW,240,1.0,2.0,88,0.00,,,0.00,Wunderground v.1.12,2013-12-02 14:16:00,
2013-12-02 09:18:00,35.5,32.0,29.99,SW,214,1.0,2.0,87,0.00,,,0.00,Wunderground v.1.12,2013-12-02 14:18:00,
2013-12-02 09:20:00,35.7,32.2,29.98,SW,229,2.0,2.0,87,0.00,,,0.00,Wunderground v.1.12,2013-12-02 14:20:00,
2013-12-02 09:21:00,35.8,32.3,29.99,WSW,258,0.0,2.0,87,0.00,,,0.00,Wunderground v.1.12,2013-12-02 14:21:00,
2013-12-02 09:23:00,36.1,32.3,29.98,WSW,240,1.0,1.0,86,0.00,,,0.00,Wunderground v.1.12,2013-12-02 14:23:00,
2013-12-02 09:24:00,36.1,32.3,29.98,WSW,240,1.0,1.0,86,0.00,,,0.00,Wunderground v.1.12,2013-12-02 14:24:00,
2013-12-02 09:25:00,36.2,32.1,29.99,West,281,2.0,2.0,85,0.00,,,0.00,Wunderground v.1.12,2013-12-02 14:25:00,
2013-12-02 09:26:00,36.4,32.3,29.99,West,276,2.0,2.0,85,0.00,,,0.00,Wunderground v.1.12,2013-12-02 14:26:00,
2013-12-02 09:29:00,36.9,32.8,29.98,SW,224,2.0,2.0,85,0.00,,,0.00,Wunderground v.1.12,2013-12-02 14:29:00,
2013-12-02 09:30:00,37.0,32.6,29.98,SSW,194,2.0,2.0,84,0.00,,,0.00,Wunderground v.1.12,2013-12-02 14:30:00,
2013-12-02 09:31:00,37.3,32.6,29.98,WSW,239,3.0,4.0,83,0.00,,,0.00,Wunderground v.1.12,2013-12-02 14:31:00,
2013-12-02 09:32:00,37.4,32.7,29.98,SW,234,2.0,4.0,83,0.00,,,0.00,Wunderground v.1.12,2013-12-02 14:32:00,
2013-12-02 09:34:00,37.7,32.7,29.98,SW,228,2.0,4.0,82,0.00,,,0.00,Wunderground v.1.12,2013-12-02 14:34:00,
2013-12-02 09:35:00,37.8,32.8,29.98,SW,228,1.0,4.0,82,0.00,,,0.00,Wunderground v.1.12,2013-12-02 14:35:00,
2013-12-02 09:36:00,38.0,33.0,29.98,SSW,198,2.0,4.0,82,0.00,,,0.00,Wunderground v.1.12,2013-12-02 14:36:00,
2013-12-02 09:37:00,38.2,32.9,29.98,WSW,252,3.0,4.0,81,0.00,,,0.00,Wunderground v.1.12,2013-12-02 14:37:00,
2013-12-02 09:39:00,38.4,33.1,29.98,WNW,283,2.0,2.0,81,0.00,,,0.00,Wunderground v.1.12,2013-12-02 14:39:00,
2013-12-02 09:40:00,38.5,33.2,29.98,West,272,3.0,4.0,81,0.00,,,0.00,Wunderground v.1.12,2013-12-02 14:40:00,
2013-12-02 09:41:00,38.6,33.0,29.98,SSW,197,1.0,5.0,80,0.00,,,0.00,Wunderground v.1.12,2013-12-02 14:41:00,
2013-12-02 09:42:00,38.6,33.0,29.98,WSW,255,1.0,5.0,80,0.00,,,0.00,Wunderground v.1.12,2013-12-02 14:42:00,
2013-12-02 09:44:00,38.7,33.1,29.98,West,262,1.0,2.0,80,0.00,,,0.00,Wunderground v.1.12,2013-12-02 14:44:00,
2013-12-02 09:45:00,38.8,33.2,29.98,SSW,195,0.0,2.0,80,0.00,,,0.00,Wunderground v.1.12,2013-12-02 14:45:00,
2013-12-02 09:46:00,38.9,33.3,29.98,South,188,0.0,2.0,80,0.00,,,0.00,Wunderground v.1.12,2013-12-02 14:46:00,
2013-12-02 09:47:00,38.9,33.3,29.98,SW,214,3.0,4.0,80,0.00,,,0.00,Wunderground v.1.12,2013-12-02 14:47:00,
2013-12-02 09:49:00,38.9,32.9,29.98,WSW,240,2.0,3.0,79,0.00,,,0.00,Wunderground v.1.12,2013-12-02 14:49:00,
2013-12-02 09:50:00,38.9,32.9,29.98,SSW,201,2.0,3.0,79,0.00,,,0.00,Wunderground v.1.12,2013-12-02 14:50:00,
2013-12-02 09:51:00,39.0,33.0,29.98,WSW,256,2.0,3.0,79,0.00,,,0.00,Wunderground v.1.12,2013-12-02 14:51:00,
2013-12-02 09:52:00,39.1,33.1,29.98,SW,225,2.0,3.0,79,0.00,,,0.00,Wunderground v.1.12,2013-12-02 14:52:00,
2013-12-02 09:55:00,39.2,32.9,29.98,SW,228,0.0,2.0,78,0.00,,,0.00,Wunderground v.1.12,2013-12-02 14:55:00,
2013-12-02 09:56:00,39.3,33.3,29.98,WNW,291,2.0,2.0,79,0.00,,,0.00,Wunderground v.1.12,2013-12-02 14:56:00,
2013-12-02 09:57:00,39.3,33.0,29.98,SW,236,2.0,4.0,78,0.00,,,0.00,Wunderground v.1.12,2013-12-02 14:57:00,
2013-12-02 10:00:00,39.5,33.2,29.98,West,274,2.0,2.0,78,0.00,,,0.00,Wunderground v.1.12,2013-12-02 15:00:00,
2013-12-02 10:01:00,39.5,33.2,29.98,West,271,2.0,2.0,78,0.00,,,0.00,Wunderground v.1.12,2013-12-02 15:01:00,
2013-12-02 10:02:00,39.5,32.9,29.98,SW,222,3.0,5.0,77,0.00,,,0.00,Wunderground v.1.12,2013-12-02 15:02:00,
2013-12-02 10:05:00,39.6,33.0,29.98,South,184,0.0,2.0,77,0.00,,,0.00,Wunderground v.1.12,2013-12-02 15:05:00,
2013-12-02 10:06:00,39.6,33.0,29.98,South,184,0.0,2.0,77,0.00,,,0.00,Wunderground v.1.12,2013-12-02 15:06:00,
2013-12-02 10:07:00,39.6,33.0,29.98,West,278,0.0,2.0,77,0.00,,,0.00,Wunderground v.1.12,2013-12-02 15:07:00,
2013-12-02 10:08:00,39.7,33.1,29.98,WSW,249,1.0,2.0,77,0.00,,,0.00,Wunderground v.1.12,2013-12-02 15:08:00,
2013-12-02 10:10:00,39.8,33.2,29.98,SW,229,0.0,2.0,77,0.00,,,0.00,Wunderground v.1.12,2013-12-02 15:10:00,
2013-12-02 10:11:00,39.8,33.2,29.98,SW,230,0.0,2.0,77,0.00,,,0.00,Wunderground v.1.12,2013-12-02 15:11:00,
2013-12-02 10:12:00,39.9,33.3,29.98,SW,229,0.0,2.0,77,0.00,,,0.00,Wunderground v.1.12,2013-12-02 15:12:00,
2013-12-02 10:13:00,39.9,33.3,29.98,WSW,242,0.0,2.0,77,0.00,,,0.00,Wunderground v.1.12,2013-12-02 15:13:00,
2013-12-02 10:16:00,40.1,33.5,29.98,SW,236,0.0,3.0,77,0.00,,,0.00,Wunderground v.1.12,2013-12-02 15:16:00,
2013-12-02 10:17:00,40.1,33.5,29.98,West,260,1.0,3.0,77,0.00,,,0.00,Wunderground v.1.12,2013-12-02 15:17:00,
2013-12-02 10:18:00,40.2,33.2,29.98,WSW,255,2.0,3.0,76,0.00,,,0.00,Wunderground v.1.12,2013-12-02 15:18:00,
2013-12-02 10:21:00,40.2,33.6,29.98,WSW,248,4.0,4.0,77,0.00,,,0.00,Wunderground v.1.12,2013-12-02 15:21:00,
2013-12-02 10:22:00,40.2,33.2,29.98,SW,230,2.0,4.0,76,0.00,,,0.00,Wunderground v.1.12,2013-12-02 15:22:00,
2013-12-02 10:23:00,40.2,33.2,29.98,WSW,243,1.0,4.0,76,0.00,,,0.00,Wunderground v.1.12,2013-12-02 15:23:00,
2013-12-02 10:26:00,40.2,33.2,29.98,South,174,1.0,5.0,76,0.00,,,0.00,Wunderground v.1.12,2013-12-02 15:26:00,
2013-12-02 10:27:00,40.3,33.3,29.98,SW,222,4.0,5.0,76,0.00,,,0.00,Wunderground v.1.12,2013-12-02 15:27:00,
2013-12-02 10:28:00,40.3,33.3,29.98,South,179,0.0,5.0,76,0.00,,,0.00,Wunderground v.1.12,2013-12-02 15:28:00,
2013-12-02 10:31:00,40.4,33.1,29.98,South,174,2.0,5.0,75,0.00,,,0.00,Wunderground v.1.12,2013-12-02 15:31:00,
2013-12-02 10:32:00,40.4,33.4,29.98,South,174,2.0,5.0,76,0.00,,,0.00,Wunderground v.1.12,2013-12-02 15:32:00,
2013-12-02 10:33:00,40.4,33.4,29.98,South,174,0.0,5.0,76,0.00,,,0.00,Wunderground v.1.12,2013-12-02 15:33:00,
2013-12-02 10:36:00,40.5,33.5,29.98,SW,222,1.0,3.0,76,0.00,,,0.00,Wunderground v.1.12,2013-12-02 15:36:00,
2013-12-02 10:37:00,40.5,33.5,29.98,South,179,3.0,4.0,76,0.00,,,0.00,Wunderground v.1.12,2013-12-02 15:37:00,
2013-12-02 10:38:00,40.5,33.2,29.98,South,187,0.0,4.0,75,0.00,,,0.00,Wunderground v.1.12,2013-12-02 15:38:00,
2013-12-02 10:39:00,40.6,33.3,29.97,South,184,2.0,3.0,75,0.00,,,0.00,Wunderground v.1.12,2013-12-02 15:39:00,
2013-12-02 10:41:00,40.6,33.6,29.97,SE,139,1.0,3.0,76,0.00,,,0.00,Wunderground v.1.12,2013-12-02 15:41:00,
2013-12-02 10:42:00,40.7,33.7,29.97,SE,140,0.0,3.0,76,0.00,,,0.00,Wunderground v.1.12,2013-12-02 15:42:00,
2013-12-02 10:43:00,40.7,34.0,29.97,SE,140,0.0,3.0,77,0.00,,,0.00,Wunderground v.1.12,2013-12-02 15:43:00,
2013-12-02 10:44:00,40.8,34.1,29.97,South,179,0.0,1.0,77,0.00,,,0.00,Wunderground v.1.12,2013-12-02 15:44:00,
2013-12-02 10:46:00,40.9,33.6,29.97,SSW,203,2.0,3.0,75,0.00,,,0.00,Wunderground v.1.12,2013-12-02 15:46:00,
2013-12-02 10:47:00,40.9,33.6,29.97,SSW,207,0.0,3.0,75,0.00,,,0.00,Wunderground v.1.12,2013-12-02 15:47:00,
2013-12-02 10:49:00,41.0,33.7,29.97,SW,229,3.0,4.0,75,0.00,,,0.00,Wunderground v.1.12,2013-12-02 15:49:00,
2013-12-02 10:51:00,41.1,33.4,29.97,SSW,200,4.0,4.0,74,0.00,,,0.00,Wunderground v.1.12,2013-12-02 15:51:00,
2013-12-02 10:52:00,41.1,33.4,29.97,SW,236,2.0,4.0,74,0.00,,,0.00,Wunderground v.1.12,2013-12-02 15:52:00,
2013-12-02 10:54:00,41.2,33.9,29.97,SSE,158,2.0,2.0,75,0.00,,,0.00,Wunderground v.1.12,2013-12-02 15:54:00,
2013-12-02 10:55:00,41.2,33.5,29.97,SSE,163,1.0,3.0,74,0.00,,,0.00,Wunderground v.1.12,2013-12-02 15:55:00,
2013-12-02 10:56:00,41.3,33.6,29.97,SW,236,2.0,3.0,74,0.00,,,0.00,Wunderground v.1.12,2013-12-02 15:56:00,
2013-12-02 10:57:00,41.3,33.6,29.97,WSW,254,2.0,3.0,74,0.00,,,0.00,Wunderground v.1.12,2013-12-02 15:57:00,
2013-12-02 10:58:00,41.3,33.6,29.97,WSW,248,2.0,3.0,74,0.00,,,0.00,Wunderground v.1.12,2013-12-02 15:58:00,
2013-12-02 10:59:00,41.4,33.7,29.97,SW,218,1.0,2.0,74,0.00,,,0.00,Wunderground v.1.12,2013-12-02 15:59:00,
2013-12-02 11:00:00,41.4,33.7,29.97,SE,139,0.0,2.0,74,0.00,,,0.00,Wunderground v.1.12,2013-12-02 16:00:00,
2013-12-02 11:01:00,41.5,33.8,29.97,SE,127,0.0,2.0,74,0.00,,,0.00,Wunderground v.1.12,2013-12-02 16:01:00,
2013-12-02 11:02:00,41.5,33.8,29.97,SSE,160,0.0,2.0,74,0.00,,,0.00,Wunderground v.1.12,2013-12-02 16:02:00,
2013-12-02 11:03:00,41.5,34.2,29.97,West,280,2.0,3.0,75,0.00,,,0.00,Wunderground v.1.12,2013-12-02 16:03:00,
2013-12-02 11:04:00,41.6,34.3,29.97,SW,222,1.0,1.0,75,0.00,,,0.00,Wunderground v.1.12,2013-12-02 16:04:00,
2013-12-02 11:05:00,41.7,34.0,29.96,SSE,156,0.0,1.0,74,0.00,,,0.00,Wunderground v.1.12,2013-12-02 16:05:00,
2013-12-02 11:06:00,41.8,34.1,29.96,WSW,256,2.0,2.0,74,0.00,,,0.00,Wunderground v.1.12,2013-12-02 16:06:00,
2013-12-02 11:07:00,41.8,34.1,29.96,WSW,243,1.0,2.0,74,0.00,,,0.00,Wunderground v.1.12,2013-12-02 16:07:00,
2013-12-02 11:08:00,41.9,34.2,29.96,SW,222,2.0,2.0,74,0.00,,,0.00,Wunderground v.1.12,2013-12-02 16:08:00,
2013-12-02 11:09:00,42.0,34.3,29.96,SSW,212,2.0,2.0,74,0.00,,,0.00,Wunderground v.1.12,2013-12-02 16:09:00,
2013-12-02 11:10:00,42.1,34.4,29.96,WSW,255,0.0,2.0,74,0.00,,,0.00,Wunderground v.1.12,2013-12-02 16:10:00,
2013-12-02 11:12:00,42.2,34.5,29.96,West,259,1.0,2.0,74,0.00,,,0.00,Wunderground v.1.12,2013-12-02 16:12:00,
2013-12-02 11:13:00,42.2,34.2,29.96,WSW,255,3.0,4.0,73,0.00,,,0.00,Wunderground v.1.12,2013-12-02 16:13:00,
2013-12-02 11:14:00,42.2,34.2,29.96,NW,316,1.0,4.0,73,0.00,,,0.00,Wunderground v.1.12,2013-12-02 16:14:00,
2013-12-02 11:15:00,42.3,34.6,29.96,WSW,252,0.0,4.0,74,0.00,,,0.00,Wunderground v.1.12,2013-12-02 16:15:00,
2013-12-02 11:17:00,42.3,34.3,29.96,WSW,258,0.0,4.0,73,0.00,,,0.00,Wunderground v.1.12,2013-12-02 16:17:00,
2013-12-02 11:18:00,42.4,34.4,29.96,West,260,5.0,6.0,73,0.00,,,0.00,Wunderground v.1.12,2013-12-02 16:18:00,
2013-12-02 11:19:00,42.4,34.0,29.95,SW,236,2.0,4.0,72,0.00,,,0.00,Wunderground v.1.12,2013-12-02 16:19:00,
2013-12-02 11:21:00,42.4,34.0,29.95,SW,226,2.0,4.0,72,0.00,,,0.00,Wunderground v.1.12,2013-12-02 16:21:00,
2013-12-02 11:22:00,42.5,34.5,29.95,SSW,205,0.0,4.0,73,0.00,,,0.00,Wunderground v.1.12,2013-12-02 16:22:00,
2013-12-02 11:23:00,42.6,34.5,29.95,West,276,1.0,4.0,73,0.00,,,0.00,Wunderground v.1.12,2013-12-02 16:23:00,
2013-12-02 11:24:00,42.6,34.2,29.95,WSW,257,3.0,4.0,72,0.00,,,0.00,Wunderground v.1.12,2013-12-02 16:24:00,
2013-12-02 11:26:00,42.7,34.6,29.95,West,273,4.0,5.0,73,0.00,,,0.00,Wunderground v.1.12,2013-12-02 16:26:00,
2013-12-02 11:27:00,42.7,34.6,29.95,WNW,284,1.0,5.0,73,0.00,,,0.00,Wunderground v.1.12,2013-12-02 16:27:00,
2013-12-02 11:29:00,42.7,34.3,29.95,SSW,194,0.0,2.0,72,0.00,,,0.00,Wunderground v.1.12,2013-12-02 16:29:00,
2013-12-02 11:30:00,42.8,34.4,29.95,West,272,0.0,2.0,72,0.00,,,0.00,Wunderground v.1.12,2013-12-02 16:30:00,
2013-12-02 11:32:00,43.0,34.9,29.95,NW,314,2.0,3.0,73,0.00,,,0.00,Wunderground v.1.12,2013-12-02 16:32:00,
2013-12-02 11:34:00,43.1,35.0,29.95,WNW,296,2.0,2.0,73,0.00,,,0.00,Wunderground v.1.12,2013-12-02 16:34:00,
2013-12-02 11:35:00,43.3,34.9,29.95,West,262,3.0,6.0,72,0.00,,,0.00,Wunderground v.1.12,2013-12-02 16:35:00,
2013-12-02 11:37:00,43.3,34.9,29.95,West,276,4.0,6.0,72,0.00,,,0.00,Wunderground v.1.12,2013-12-02 16:37:00,
2013-12-02 11:38:00,43.3,35.2,29.94,West,270,5.0,6.0,73,0.00,,,0.00,Wunderground v.1.12,2013-12-02 16:38:00,
2013-12-02 11:39:00,43.3,34.9,29.94,WNW,302,3.0,6.0,72,0.00,,,0.00,Wunderground v.1.12,2013-12-02 16:39:00,
2013-12-02 11:41:00,43.4,35.0,29.94,WNW,302,4.0,6.0,72,0.00,,,0.00,Wunderground v.1.12,2013-12-02 16:41:00,
2013-12-02 11:42:00,43.4,34.6,29.94,SSW,209,0.0,6.0,71,0.00,,,0.00,Wunderground v.1.12,2013-12-02 16:42:00,
2013-12-02 11:43:00,43.5,35.1,29.94,West,278,2.0,6.0,72,0.00,,,0.00,Wunderground v.1.12,2013-12-02 16:43:00,
2013-12-02 11:44:00,43.5,34.7,29.94,West,264,4.0,4.0,71,0.00,,,0.00,Wunderground v.1.12,2013-12-02 16:44:00,
2013-12-02 11:46:00,43.6,34.8,29.94,West,274,1.0,4.0,71,0.00,,,0.00,Wunderground v.1.12,2013-12-02 16:46:00,
2013-12-02 11:47:00,43.8,35.4,29.94,NW,306,2.0,4.0,72,0.00,,,0.00,Wunderground v.1.12,2013-12-02 16:47:00,
2013-12-02 11:49:00,44.1,35.6,29.94,WSW,238,4.0,4.0,72,0.00,,,0.00,Wunderground v.1.12,2013-12-02 16:49:00,
2013-12-02 11:51:00,44.2,35.0,29.94,West,271,4.0,5.0,70,0.00,,,0.00,Wunderground v.1.12,2013-12-02 16:51:00,
2013-12-02 11:52:00,44.1,34.9,29.94,West,281,8.0,8.0,70,0.00,,,0.00,Wunderground v.1.12,2013-12-02 16:52:00,
2013-12-02 11:53:00,44.1,34.9,29.93,SW,231,4.0,8.0,70,0.00,,,0.00,Wunderground v.1.12,2013-12-02 16:53:00,
2013-12-02 11:54:00,44.0,34.8,29.93,WNW,283,1.0,3.0,70,0.00,,,0.00,Wunderground v.1.12,2013-12-02 16:54:00,
2013-12-02 11:55:00,44.0,35.2,29.93,SW,226,1.0,3.0,71,0.00,,,0.00,Wunderground v.1.12,2013-12-02 16:55:00,
2013-12-02 11:56:00,44.0,34.8,29.93,SSW,206,2.0,7.0,70,0.00,,,0.00,Wunderground v.1.12,2013-12-02 16:56:00,
2013-12-02 11:57:00,44.0,34.8,29.93,WSW,246,0.0,7.0,70,0.00,,,0.00,Wunderground v.1.12,2013-12-02 16:57:00,
2013-12-02 11:58:00,44.0,35.2,29.93,WSW,249,1.0,7.0,71,0.00,,,0.00,Wunderground v.1.12,2013-12-02 16:58:00,
2013-12-02 11:59:00,44.0,35.2,29.93,West,276,2.0,4.0,71,0.00,,,0.00,Wunderground v.1.12,2013-12-02 16:59:00,
2013-12-02 12:00:00,44.1,34.9,29.93,WSW,253,0.0,4.0,70,0.00,,,0.00,Wunderground v.1.12,2013-12-02 17:00:00,
2013-12-02 12:02:00,44.2,35.4,29.93,SSW,207,0.0,4.0,71,0.00,,,0.00,Wunderground v.1.12,2013-12-02 17:02:00,
2013-12-02 12:03:00,44.4,35.9,29.93,WNW,285,1.0,4.0,72,0.00,,,0.00,Wunderground v.1.12,2013-12-02 17:03:00,
2013-12-02 12:04:00,44.5,35.3,29.93,West,266,4.0,5.0,70,0.00,,,0.00,Wunderground v.1.12,2013-12-02 17:04:00,
2013-12-02 12:05:00,44.5,35.0,29.93,WNW,292,0.0,5.0,69,0.00,,,0.00,Wunderground v.1.12,2013-12-02 17:05:00,
2013-12-02 12:07:00,44.7,35.9,29.93,NE,53,0.0,5.0,71,0.00,,,0.00,Wunderground v.1.12,2013-12-02 17:07:00,
2013-12-02 12:08:00,44.8,36.0,29.93,West,259,0.0,5.0,71,0.00,,,0.00,Wunderground v.1.12,2013-12-02 17:08:00,
2013-12-02 12:09:00,45.0,35.8,29.93,South,170,0.0,1.0,70,0.00,,,0.00,Wunderground v.1.12,2013-12-02 17:09:00,
2013-12-02 12:10:00,45.2,36.0,29.92,SSW,205,1.0,2.0,70,0.00,,,0.00,Wunderground v.1.12,2013-12-02 17:10:00,
2013-12-02 12:12:00,45.7,36.5,29.92,SW,232,2.0,2.0,70,0.00,,,0.00,Wunderground v.1.12,2013-12-02 17:12:00,
2013-12-02 12:13:00,45.7,36.5,29.92,West,273,2.0,4.0,70,0.00,,,0.00,Wunderground v.1.12,2013-12-02 17:13:00,
2013-12-02 12:14:00,45.9,36.3,29.92,NNE,25,1.0,3.0,69,0.00,,,0.00,Wunderground v.1.12,2013-12-02 17:14:00,
2013-12-02 12:15:00,45.9,36.3,29.92,NW,305,1.0,3.0,69,0.00,,,0.00,Wunderground v.1.12,2013-12-02 17:15:00,
2013-12-02 12:17:00,46.0,35.7,29.92,NE,53,2.0,4.0,67,0.00,,,0.00,Wunderground v.1.12,2013-12-02 17:17:00,
2013-12-02 12:18:00,46.0,35.7,29.92,NE,53,0.0,4.0,67,0.00,,,0.00,Wunderground v.1.12,2013-12-02 17:18:00,
2013-12-02 12:19:00,46.1,36.5,29.91,West,276,3.0,4.0,69,0.00,,,0.00,Wunderground v.1.12,2013-12-02 17:19:00,
2013-12-02 12:20:00,46.1,36.5,29.91,WNW,294,2.0,5.0,69,0.00,,,0.00,Wunderground v.1.12,2013-12-02 17:20:00,
2013-12-02 12:23:00,46.0,35.3,29.91,SW,236,2.0,7.0,66,0.00,,,0.00,Wunderground v.1.12,2013-12-02 17:23:00,
2013-12-02 12:24:00,46.0,36.0,29.91,West,269,2.0,3.0,68,0.00,,,0.00,Wunderground v.1.12,2013-12-02 17:24:00,
2013-12-02 12:25:00,46.0,36.0,29.91,WSW,239,5.0,5.0,68,0.00,,,0.00,Wunderground v.1.12,2013-12-02 17:25:00,
2013-12-02 12:28:00,46.0,35.7,29.91,WSW,250,3.0,5.0,67,0.00,,,0.00,Wunderground v.1.12,2013-12-02 17:28:00,
2013-12-02 12:29:00,46.0,35.7,29.91,WNW,293,2.0,2.0,67,0.00,,,0.00,Wunderground v.1.12,2013-12-02 17:29:00,
2013-12-02 12:30:00,46.0,35.7,29.91,West,278,3.0,3.0,67,0.00,,,0.00,Wunderground v.1.12,2013-12-02 17:30:00,
2013-12-02 12:33:00,46.0,35.3,29.91,NE,47,4.0,5.0,66,0.00,,,0.00,Wunderground v.1.12,2013-12-02 17:33:00,
2013-12-02 12:34:00,46.0,35.7,29.91,East,79,0.0,2.0,67,0.00,,,0.00,Wunderground v.1.12,2013-12-02 17:34:00,
2013-12-02 12:35:00,46.1,35.7,29.91,WNW,295,4.0,6.0,67,0.00,,,0.00,Wunderground v.1.12,2013-12-02 17:35:00,
2013-12-02 12:38:00,46.1,35.4,29.91,WNW,283,3.0,6.0,66,0.00,,,0.00,Wunderground v.1.12,2013-12-02 17:38:00,
2013-12-02 12:39:00,46.0,35.7,29.91,NW,307,3.0,3.0,67,0.00,,,0.00,Wunderground v.1.12,2013-12-02 17:39:00,
2013-12-02 12:40:00,45.8,35.1,29.91,West,280,1.0,4.0,66,0.00,,,0.00,Wunderground v.1.12,2013-12-02 17:40:00,
2013-12-02 12:43:00,45.7,35.7,29.91,WSW,249,0.0,4.0,68,0.00,,,0.00,Wunderground v.1.12,2013-12-02 17:43:00,
2013-12-02 12:44:00,45.8,35.8,29.91,WSW,252,1.0,2.0,68,0.00,,,0.00,Wunderground v.1.12,2013-12-02 17:44:00,
2013-12-02 12:45:00,45.9,35.6,29.91,WNW,303,1.0,2.0,67,0.00,,,0.00,Wunderground v.1.12,2013-12-02 17:45:00,
2013-12-02 12:46:00,45.9,35.9,29.91,WNW,295,2.0,2.0,68,0.00,,,0.00,Wunderground v.1.12,2013-12-02 17:46:00,
2013-12-02 12:48:00,45.9,35.6,29.90,WSW,257,1.0,5.0,67,0.00,,,0.00,Wunderground v.1.12,2013-12-02 17:48:00,
2013-12-02 12:49:00,46.0,36.0,29.90,WNW,284,0.0,2.0,68,0.00,,,0.00,Wunderground v.1.12,2013-12-02 17:49:00,
2013-12-02 12:50:00,46.1,36.1,29.90,WNW,285,4.0,4.0,68,0.00,,,0.00,Wunderground v.1.12,2013-12-02 17:50:00,
2013-12-02 12:51:00,46.1,35.7,29.90,WNW,284,3.0,5.0,67,0.00,,,0.00,Wunderground v.1.12,2013-12-02 17:51:00,
2013-12-02 12:53:00,45.9,35.2,29.90,WSW,258,3.0,6.0,66,0.00,,,0.00,Wunderground v.1.12,2013-12-02 17:53:00,
2013-12-02 12:54:00,45.8,35.1,29.90,WSW,255,3.0,4.0,66,0.00,,,0.00,Wunderground v.1.12,2013-12-02 17:54:00,
2013-12-02 12:55:00,45.8,35.5,29.90,West,278,4.0,5.0,67,0.00,,,0.00,Wunderground v.1.12,2013-12-02 17:55:00,
2013-12-02 12:56:00,45.7,35.0,29.90,West,278,2.0,5.0,66,0.00,,,0.00,Wunderground v.1.12,2013-12-02 17:56:00,
2013-12-02 12:58:00,45.5,35.5,29.90,SW,226,3.0,5.0,68,0.00,,,0.00,Wunderground v.1.12,2013-12-02 17:58:00,
2013-12-02 12:59:00,45.5,35.5,29.90,SW,236,5.0,5.0,68,0.00,,,0.00,Wunderground v.1.12,2013-12-02 17:59:00,
2013-12-02 13:00:00,45.5,35.2,29.90,South,169,0.0,5.0,67,0.00,,,0.00,Wunderground v.1.12,2013-12-02 18:00:00,
2013-12-02 13:01:00,45.5,35.2,29.90,West,262,3.0,5.0,67,0.00,,,0.00,Wunderground v.1.12,2013-12-02 18:01:00,
2013-12-02 13:02:00,45.4,35.1,29.90,WSW,254,4.0,5.0,67,0.00,,,0.00,Wunderground v.1.12,2013-12-02 18:02:00,
2013-12-02 13:03:00,45.4,35.5,29.90,WNW,301,2.0,3.0,68,0.00,,,0.00,Wunderground v.1.12,2013-12-02 18:03:00,
2013-12-02 13:04:00,45.4,35.5,29.90,NW,311,3.0,3.0,68,0.00,,,0.00,Wunderground v.1.12,2013-12-02 18:04:00,
2013-12-02 13:05:00,45.4,35.5,29.90,West,263,2.0,4.0,68,0.00,,,0.00,Wunderground v.1.12,2013-12-02 18:05:00,
2013-12-02 13:06:00,45.4,35.5,29.90,SW,220,1.0,4.0,68,0.00,,,0.00,Wunderground v.1.12,2013-12-02 18:06:00,
2013-12-02 13:07:00,45.5,35.5,29.90,WSW,244,2.0,5.0,68,0.00,,,0.00,Wunderground v.1.12,2013-12-02 18:07:00,
2013-12-02 13:09:00,45.4,35.5,29.90,West,270,3.0,5.0,68,0.00,,,0.00,Wunderground v.1.12,2013-12-02 18:09:00,
2013-12-02 13:10:00,45.4,35.5,29.90,WSW,253,1.0,5.0,68,0.00,,,0.00,Wunderground v.1.12,2013-12-02 18:10:00,
2013-12-02 13:11:00,45.5,35.9,29.90,WNW,300,3.0,5.0,69,0.00,,,0.00,Wunderground v.1.12,2013-12-02 18:11:00,
2013-12-02 13:12:00,45.5,35.9,29.90,West,276,2.0,5.0,69,0.00,,,0.00,Wunderground v.1.12,2013-12-02 18:12:00,
2013-12-02 13:14:00,45.5,35.5,29.90,WSW,258,3.0,4.0,68,0.00,,,0.00,Wunderground v.1.12,2013-12-02 18:14:00,
2013-12-02 13:15:00,45.5,35.5,29.89,WNW,302,3.0,4.0,68,0.00,,,0.00,Wunderground v.1.12,2013-12-02 18:15:00,
2013-12-02 13:16:00,45.5,35.5,29.89,WNW,300,1.0,4.0,68,0.00,,,0.00,Wunderground v.1.12,2013-12-02 18:16:00,
2013-12-02 13:17:00,45.5,35.5,29.89,WNW,302,0.0,4.0,68,0.00,,,0.00,Wunderground v.1.12,2013-12-02 18:17:00,
2013-12-02 13:19:00,45.6,36.4,29.89,NE,37,2.0,2.0,70,0.00,,,0.00,Wunderground v.1.12,2013-12-02 18:19:00,
2013-12-02 13:20:00,45.6,36.0,29.89,NE,43,0.0,2.0,69,0.00,,,0.00,Wunderground v.1.12,2013-12-02 18:20:00,
2013-12-02 13:21:00,45.6,36.0,29.89,NE,43,0.0,2.0,69,0.00,,,0.00,Wunderground v.1.12,2013-12-02 18:21:00,
2013-12-02 13:22:00,45.7,36.1,29.89,West,259,2.0,2.0,69,0.00,,,0.00,Wunderground v.1.12,2013-12-02 18:22:00,
2013-12-02 13:24:00,45.6,35.6,29.89,West,278,3.0,4.0,68,0.00,,,0.00,Wunderground v.1.12,2013-12-02 18:24:00,
2013-12-02 13:26:00,45.5,35.5,29.89,WNW,290,1.0,4.0,68,0.00,,,0.00,Wunderground v.1.12,2013-12-02 18:26:00,
2013-12-02 13:27:00,45.5,35.9,29.89,WSW,249,0.0,4.0,69,0.00,,,0.00,Wunderground v.1.12,2013-12-02 18:27:00,
2013-12-02 13:29:00,45.5,35.9,29.89,West,278,1.0,3.0,69,0.00,,,0.00,Wunderground v.1.12,2013-12-02 18:29:00,
2013-12-02 13:31:00,45.4,35.8,29.89,West,276,0.0,3.0,69,0.00,,,0.00,Wunderground v.1.12,2013-12-02 18:31:00,
2013-12-02 13:33:00,45.5,35.9,29.89,NNE,19,0.0,3.0,69,0.00,,,0.00,Wunderground v.1.12,2013-12-02 18:33:00,
2013-12-02 13:34:00,45.6,36.0,29.89,NNE,30,1.0,1.0,69,0.00,,,0.00,Wunderground v.1.12,2013-12-02 18:34:00,
2013-12-02 13:35:00,45.6,36.0,29.89,ENE,58,2.0,3.0,69,0.00,,,0.00,Wunderground v.1.12,2013-12-02 18:35:00,
2013-12-02 13:36:00,45.6,35.6,29.89,NW,311,0.0,3.0,68,0.00,,,0.00,Wunderground v.1.12,2013-12-02 18:36:00,
2013-12-02 13:37:00,45.6,35.6,29.89,NW,312,0.0,3.0,68,0.00,,,0.00,Wunderground v.1.12,2013-12-02 18:37:00,
2013-12-02 13:38:00,45.6,36.0,29.89,NW,324,0.0,3.0,69,0.00,,,0.00,Wunderground v.1.12,2013-12-02 18:38:00,
2013-12-02 13:39:00,45.6,35.6,29.89,NNW,344,2.0,2.0,68,0.00,,,0.00,Wunderground v.1.12,2013-12-02 18:39:00,
2013-12-02 13:40:00,45.6,35.6,29.89,NNW,342,1.0,2.0,68,0.00,,,0.00,Wunderground v.1.12,2013-12-02 18:40:00,
2013-12-02 13:41:00,45.6,35.6,29.89,NNW,342,0.0,2.0,68,0.00,,,0.00,Wunderground v.1.12,2013-12-02 18:41:00,
2013-12-02 13:42:00,45.6,36.0,29.89,NNW,342,0.0,2.0,69,0.00,,,0.00,Wunderground v.1.12,2013-12-02 18:42:00,
2013-12-02 13:43:00,45.6,36.4,29.89,NNW,344,0.0,2.0,70,0.00,,,0.00,Wunderground v.1.12,2013-12-02 18:43:00,
2013-12-02 13:44:00,45.6,35.6,29.89,West,266,1.0,3.0,68,0.00,,,0.00,Wunderground v.1.12,2013-12-02 18:44:00,
2013-12-02 13:45:00,45.6,35.6,29.89,West,263,1.0,3.0,68,0.00,,,0.00,Wunderground v.1.12,2013-12-02 18:45:00,
2013-12-02 13:46:00,45.6,35.6,29.89,WNW,295,1.0,3.0,68,0.00,,,0.00,Wunderground v.1.12,2013-12-02 18:46:00,
2013-12-02 13:47:00,45.6,35.6,29.89,NW,314,1.0,3.0,68,0.00,,,0.00,Wunderground v.1.12,2013-12-02 18:47:00,
2013-12-02 13:48:00,45.5,35.9,29.89,WSW,239,0.0,3.0,69,0.00,,,0.00,Wunderground v.1.12,2013-12-02 18:48:00,
2013-12-02 13:49:00,45.5,35.9,29.89,West,267,0.0,1.0,69,0.00,,,0.00,Wunderground v.1.12,2013-12-02 18:49:00,
2013-12-02 13:50:00,45.6,36.0,29.89,WSW,249,2.0,2.0,69,0.00,,,0.00,Wunderground v.1.12,2013-12-02 18:50:00,
2013-12-02 13:51:00,45.5,35.9,29.89,WSW,252,0.0,2.0,69,0.00,,,0.00,Wunderground v.1.12,2013-12-02 18:51:00,
2013-12-02 13:52:00,45.5,35.9,29.89,WNW,285,0.0,2.0,69,0.00,,,0.00,Wunderground v.1.12,2013-12-02 18:52:00,
2013-12-02 13:53:00,45.5,35.9,29.89,WNW,285,0.0,2.0,69,0.00,,,0.00,Wunderground v.1.12,2013-12-02 18:53:00,
2013-12-02 13:55:00,45.5,36.3,29.89,WNW,294,1.0,1.0,70,0.00,,,0.00,Wunderground v.1.12,2013-12-02 18:55:00,
2013-12-02 13:56:00,45.5,35.9,29.89,WNW,293,0.0,1.0,69,0.00,,,0.00,Wunderground v.1.12,2013-12-02 18:56:00,
2013-12-02 13:57:00,45.5,35.9,29.89,WNW,294,0.0,1.0,69,0.00,,,0.00,Wunderground v.1.12,2013-12-02 18:57:00,
2013-12-02 13:58:00,45.5,35.9,29.89,WNW,296,1.0,1.0,69,0.00,,,0.00,Wunderground v.1.12,2013-12-02 18:58:00,
2013-12-02 13:59:00,45.5,35.5,29.89,WNW,298,1.0,1.0,68,0.00,,,0.00,Wunderground v.1.12,2013-12-02 18:59:00,
2013-12-02 14:00:00,45.5,35.9,29.88,NW,305,3.0,3.0,69,0.00,,,0.00,Wunderground v.1.12,2013-12-02 19:00:00,
2013-12-02 14:02:00,45.5,35.9,29.89,NW,309,0.0,3.0,69,0.00,,,0.00,Wunderground v.1.12,2013-12-02 19:02:00,
2013-12-02 14:04:00,45.4,35.5,29.88,West,273,2.0,2.0,68,0.00,,,0.00,Wunderground v.1.12,2013-12-02 19:04:00,
2013-12-02 14:05:00,45.3,35.7,29.89,NW,304,0.0,2.0,69,0.00,,,0.00,Wunderground v.1.12,2013-12-02 19:05:00,
2013-12-02 14:07:00,45.3,35.7,29.88,NW,304,0.0,2.0,69,0.00,,,0.00,Wunderground v.1.12,2013-12-02 19:07:00,
2013-12-02 14:09:00,45.3,35.7,29.88,NW,304,0.0,1.0,69,0.00,,,0.00,Wunderground v.1.12,2013-12-02 19:09:00,
2013-12-02 14:10:00,45.3,36.1,29.88,NW,304,0.0,1.0,70,0.00,,,0.00,Wunderground v.1.12,2013-12-02 19:10:00,
2013-12-02 14:12:00,45.3,35.7,29.88,West,272,2.0,2.0,69,0.00,,,0.00,Wunderground v.1.12,2013-12-02 19:12:00,
2013-12-02 14:14:00,45.2,35.6,29.88,WNW,295,0.0,1.0,69,0.00,,,0.00,Wunderground v.1.12,2013-12-02 19:14:00,
2013-12-02 14:15:00,45.3,35.7,29.88,WNW,294,0.0,1.0,69,0.00,,,0.00,Wunderground v.1.12,2013-12-02 19:15:00,
2013-12-02 14:16:00,45.3,36.1,29.88,WNW,295,0.0,1.0,70,0.00,,,0.00,Wunderground v.1.12,2013-12-02 19:16:00,
2013-12-02 14:17:00,45.3,36.1,29.88,NW,322,0.0,1.0,70,0.00,,,0.00,Wunderground v.1.12,2013-12-02 19:17:00,
2013-12-02 14:19:00,45.4,36.2,29.88,NNE,25,0.0,2.0,70,0.00,,,0.00,Wunderground v.1.12,2013-12-02 19:19:00,
2013-12-02 14:20:00,45.4,36.2,29.88,NNE,25,0.0,2.0,70,0.00,,,0.00,Wunderground v.1.12,2013-12-02 19:20:00,
2013-12-02 14:21:00,45.4,36.2,29.88,North,352,2.0,3.0,70,0.00,,,0.00,Wunderground v.1.12,2013-12-02 19:21:00,
2013-12-02 14:22:00,45.4,35.8,29.88,North,360,1.0,3.0,69,0.00,,,0.00,Wunderground v.1.12,2013-12-02 19:22:00,
2013-12-02 14:24:00,45.5,36.3,29.88,North,4,0.0,1.0,70,0.00,,,0.00,Wunderground v.1.12,2013-12-02 19:24:00,
2013-12-02 14:25:00,45.4,36.2,29.88,NNE,15,0.0,1.0,70,0.00,,,0.00,Wunderground v.1.12,2013-12-02 19:25:00,
2013-12-02 14:26:00,45.4,36.2,29.88,NE,44,2.0,3.0,70,0.00,,,0.00,Wunderground v.1.12,2013-12-02 19:26:00,
2013-12-02 14:27:00,45.4,35.8,29.88,NNE,16,1.0,3.0,69,0.00,,,0.00,Wunderground v.1.12,2013-12-02 19:27:00,
2013-12-02 14:29:00,45.4,35.8,29.88,North,359,0.0,1.0,69,0.00,,,0.00,Wunderground v.1.12,2013-12-02 19:29:00,
2013-12-02 14:30:00,45.4,36.2,29.88,North,359,0.0,1.0,70,0.00,,,0.00,Wunderground v.1.12,2013-12-02 19:30:00,
2013-12-02 14:32:00,45.4,35.8,29.88,NNE,12,1.0,2.0,69,0.00,,,0.00,Wunderground v.1.12,2013-12-02 19:32:00,
2013-12-02 14:34:00,45.4,36.2,29.88,NNE,12,0.0,1.0,70,0.00,,,0.00,Wunderground v.1.12,2013-12-02 19:34:00,
2013-12-02 14:35:00,45.4,36.2,29.88,NNE,23,0.0,1.0,70,0.00,,,0.00,Wunderground v.1.12,2013-12-02 19:35:00,
2013-12-02 14:37:00,45.4,36.2,29.88,NNE,22,0.0,1.0,70,0.00,,,0.00,Wunderground v.1.12,2013-12-02 19:37:00,
2013-12-02 14:38:00,45.4,36.2,29.88,NNE,19,1.0,1.0,70,0.00,,,0.00,Wunderground v.1.12,2013-12-02 19:38:00,
2013-12-02 14:40:00,45.4,36.2,29.88,NNE,33,0.0,1.0,70,0.00,,,0.00,Wunderground v.1.12,2013-12-02 19:40:00,
2013-12-02 14:41:00,45.4,36.2,29.88,NNE,33,0.0,1.0,70,0.00,,,0.00,Wunderground v.1.12,2013-12-02 19:41:00,
2013-12-02 14:42:00,45.5,36.3,29.88,NNE,33,0.0,1.0,70,0.00,,,0.00,Wunderground v.1.12,2013-12-02 19:42:00,
2013-12-02 14:43:00,45.4,36.2,29.88,NNE,33,0.0,1.0,70,0.00,,,0.00,Wunderground v.1.12,2013-12-02 19:43:00,
2013-12-02 14:45:00,45.5,36.3,29.88,WNW,285,0.0,1.0,70,0.00,,,0.00,Wunderground v.1.12,2013-12-02 19:45:00,
2013-12-02 14:46:00,45.5,36.3,29.88,NE,44,0.0,1.0,70,0.00,,,0.00,Wunderground v.1.12,2013-12-02 19:46:00,
2013-12-02 14:47:00,45.5,35.9,29.88,NNW,348,0.0,2.0,69,0.00,,,0.00,Wunderground v.1.12,2013-12-02 19:47:00,
2013-12-02 14:48:00,45.5,35.9,29.88,NE,47,1.0,2.0,69,0.00,,,0.00,Wunderground v.1.12,2013-12-02 19:48:00,
2013-12-02 14:50:00,45.5,35.9,29.88,NNW,328,0.0,1.0,69,0.00,,,0.00,Wunderground v.1.12,2013-12-02 19:50:00,
2013-12-02 14:51:00,45.4,35.8,29.88,NNE,32,0.0,2.0,69,0.00,,,0.00,Wunderground v.1.12,2013-12-02 19:51:00,
2013-12-02 14:53:00,45.5,35.9,29.88,NNE,29,1.0,2.0,69,0.00,,,0.00,Wunderground v.1.12,2013-12-02 19:53:00,
2013-12-02 14:55:00,45.5,35.9,29.88,NNW,338,0.0,2.0,69,0.00,,,0.00,Wunderground v.1.12,2013-12-02 19:55:00,
2013-12-02 14:56:00,45.4,35.8,29.88,West,274,1.0,2.0,69,0.00,,,0.00,Wunderground v.1.12,2013-12-02 19:56:00,
2013-12-02 14:58:00,45.4,35.8,29.88,West,278,1.0,2.0,69,0.00,,,0.00,Wunderground v.1.12,2013-12-02 19:58:00,
2013-12-02 15:00:00,45.4,35.8,29.88,West,278,0.0,1.0,69,0.00,,,0.00,Wunderground v.1.12,2013-12-02 20:00:00,
2013-12-02 15:01:00,45.4,36.2,29.88,West,280,1.0,1.0,70,0.00,,,0.00,Wunderground v.1.12,2013-12-02 20:01:00,
2013-12-02 15:03:00,45.4,35.8,29.88,WNW,283,0.0,1.0,69,0.00,,,0.00,Wunderground v.1.12,2013-12-02 20:03:00,
2013-12-02 15:05:00,45.4,35.8,29.88,WNW,291,1.0,2.0,69,0.00,,,0.00,Wunderground v.1.12,2013-12-02 20:05:00,
2013-12-02 15:07:00,45.4,36.2,29.88,WNW,294,0.0,2.0,70,0.00,,,0.00,Wunderground v.1.12,2013-12-02 20:07:00,
2013-12-02 15:08:00,45.4,35.8,29.88,West,281,1.0,2.0,69,0.00,,,0.00,Wunderground v.1.12,2013-12-02 20:08:00,
2013-12-02 15:09:00,45.4,35.8,29.88,WNW,297,1.0,2.0,69,0.00,,,0.00,Wunderground v.1.12,2013-12-02 20:09:00,
2013-12-02 15:10:00,45.3,35.7,29.88,WNW,288,0.0,2.0,69,0.00,,,0.00,Wunderground v.1.12,2013-12-02 20:10:00,
2013-12-02 15:12:00,45.3,35.7,29.88,WNW,288,0.0,2.0,69,0.00,,,0.00,Wunderground v.1.12,2013-12-02 20:12:00,
2013-12-02 15:13:00,45.3,36.1,29.89,WNW,288,0.0,2.0,70,0.00,,,0.00,Wunderground v.1.12,2013-12-02 20:13:00,
2013-12-02 15:14:00,45.3,36.1,29.89,WNW,288,0.0,0.0,70,0.00,,,0.00,Wunderground v.1.12,2013-12-02 20:14:00,
2013-12-02 15:15:00,45.3,36.1,29.89,WNW,288,0.0,0.0,70,0.00,,,0.00,Wunderground v.1.12,2013-12-02 20:15:00,
2013-12-02 15:17:00,45.3,35.7,29.89,WNW,288,0.0,0.0,69,0.00,,,0.00,Wunderground v.1.12,2013-12-02 20:17:00,
2013-12-02 15:18:00,45.3,35.7,29.89,WNW,291,0.0,0.0,69,0.00,,,0.00,Wunderground v.1.12,2013-12-02 20:18:00,
2013-12-02 15:19:00,45.3,35.7,29.89,North,359,0.0,1.0,69,0.00,,,0.00,Wunderground v.1.12,2013-12-02 20:19:00,
2013-12-02 15:20:00,45.3,35.7,29.89,North,11,0.0,1.0,69,0.00,,,0.00,Wunderground v.1.12,2013-12-02 20:20:00,
2013-12-02 15:22:00,45.3,35.7,29.89,NE,39,2.0,2.0,69,0.00,,,0.00,Wunderground v.1.12,2013-12-02 20:22:00,
2013-12-02 15:23:00,45.2,35.6,29.89,NE,39,0.0,0.0,69,0.00,,,0.00,Wunderground v.1.12,2013-12-02 20:23:00,
2013-12-02 15:24:00,45.2,35.6,29.89,NE,39,0.0,0.0,69,0.00,,,0.00,Wunderground v.1.12,2013-12-02 20:24:00,
2013-12-02 15:25:00,45.2,36.0,29.89,North,357,1.0,1.0,70,0.00,,,0.00,Wunderground v.1.12,2013-12-02 20:25:00,
2013-12-02 15:26:00,45.1,35.9,29.89,North,360,1.0,1.0,70,0.00,,,0.00,Wunderground v.1.12,2013-12-02 20:26:00,
2013-12-02 15:27:00,45.1,35.5,29.89,NNE,27,0.0,1.0,69,0.00,,,0.00,Wunderground v.1.12,2013-12-02 20:27:00,
2013-12-02 15:28:00,45.1,35.9,29.89,NNE,27,0.0,0.0,70,0.00,,,0.00,Wunderground v.1.12,2013-12-02 20:28:00,
2013-12-02 15:29:00,45.1,35.9,29.89,NNE,27,0.0,0.0,70,0.00,,,0.00,Wunderground v.1.12,2013-12-02 20:29:00,
2013-12-02 15:31:00,45.1,35.9,29.89,NNE,27,0.0,0.0,70,0.00,,,0.00,Wunderground v.1.12,2013-12-02 20:31:00,
2013-12-02 15:33:00,45.1,35.9,29.89,NNE,26,0.0,0.0,70,0.00,,,0.00,Wunderground v.1.12,2013-12-02 20:33:00,
2013-12-02 15:34:00,45.1,35.9,29.89,West,267,1.0,1.0,70,0.00,,,0.00,Wunderground v.1.12,2013-12-02 20:34:00,
2013-12-02 15:36:00,45.1,35.9,29.89,NNW,328,0.0,1.0,70,0.00,,,0.00,Wunderground v.1.12,2013-12-02 20:36:00,
2013-12-02 15:38:00,45.1,35.5,29.89,NNW,328,0.0,0.0,69,0.00,,,0.00,Wunderground v.1.12,2013-12-02 20:38:00,
2013-12-02 15:39:00,45.1,35.9,29.89,NNW,328,0.0,0.0,70,0.00,,,0.00,Wunderground v.1.12,2013-12-02 20:39:00,
2013-12-02 15:41:00,45.1,35.9,29.89,NNW,329,0.0,0.0,70,0.00,,,0.00,Wunderground v.1.12,2013-12-02 20:41:00,
2013-12-02 15:43:00,45.2,35.6,29.89,NNW,329,0.0,0.0,69,0.00,,,0.00,Wunderground v.1.12,2013-12-02 20:43:00,
2013-12-02 15:44:00,45.2,36.0,29.89,NNW,329,0.0,0.0,70,0.00,,,0.00,Wunderground v.1.12,2013-12-02 20:44:00,
2013-12-02 15:46:00,45.1,35.9,29.90,NNW,328,0.0,0.0,70,0.00,,,0.00,Wunderground v.1.12,2013-12-02 20:46:00,
2013-12-02 15:49:00,45.1,35.9,29.90,NNW,328,0.0,0.0,70,0.00,,,0.00,Wunderground v.1.12,2013-12-02 20:49:00,
2013-12-02 15:51:00,45.1,35.9,29.90,NNW,328,0.0,0.0,70,0.00,,,0.00,Wunderground v.1.12,2013-12-02 20:51:00,
2013-12-02 15:54:00,45.1,35.9,29.90,NNW,329,0.0,0.0,70,0.00,,,0.00,Wunderground v.1.12,2013-12-02 20:54:00,
2013-12-02 15:55:00,45.1,35.9,29.90,NNW,328,0.0,1.0,70,0.00,,,0.00,Wunderground v.1.12,2013-12-02 20:55:00,
2013-12-02 15:56:00,45.0,35.8,29.90,NNW,328,0.0,1.0,70,0.00,,,0.00,Wunderground v.1.12,2013-12-02 20:56:00,
2013-12-02 15:59:00,44.9,35.7,29.90,NNW,328,0.0,0.0,70,0.00,,,0.00,Wunderground v.1.12,2013-12-02 20:59:00,
2013-12-02 16:00:00,44.9,35.7,29.90,NNW,328,0.0,0.0,70,0.00,,,0.00,Wunderground v.1.12,2013-12-02 21:00:00,
2013-12-02 16:01:00,44.8,35.6,29.90,NNW,328,0.0,0.0,70,0.00,,,0.00,Wunderground v.1.12,2013-12-02 21:01:00,
2013-12-02 16:02:00,44.7,35.9,29.90,NNW,328,0.0,0.0,71,0.00,,,0.00,Wunderground v.1.12,2013-12-02 21:02:00,
2013-12-02 16:04:00,44.7,35.9,29.90,NNW,328,0.0,0.0,71,0.00,,,0.00,Wunderground v.1.12,2013-12-02 21:04:00,
2013-12-02 16:05:00,44.6,35.4,29.90,NNW,328,0.0,0.0,70,0.00,,,0.00,Wunderground v.1.12,2013-12-02 21:05:00,
2013-12-02 16:06:00,44.6,35.8,29.90,NNW,328,0.0,0.0,71,0.00,,,0.00,Wunderground v.1.12,2013-12-02 21:06:00,
2013-12-02 16:07:00,44.6,35.8,29.90,NNW,328,0.0,0.0,71,0.00,,,0.00,Wunderground v.1.12,2013-12-02 21:07:00,
2013-12-02 16:09:00,44.5,36.0,29.90,NNW,328,0.0,0.0,72,0.00,,,0.00,Wunderground v.1.12,2013-12-02 21:09:00,
2013-12-02 16:10:00,44.4,35.9,29.90,NNW,328,0.0,0.0,72,0.00,,,0.00,Wunderground v.1.12,2013-12-02 21:10:00,
2013-12-02 16:11:00,44.4,35.9,29.90,NNW,328,0.0,0.0,72,0.00,,,0.00,Wunderground v.1.12,2013-12-02 21:11:00,
2013-12-02 16:12:00,44.3,35.8,29.90,NNW,328,0.0,0.0,72,0.00,,,0.00,Wunderground v.1.12,2013-12-02 21:12:00,
2013-12-02 16:14:00,44.3,35.8,29.90,NNW,328,0.0,0.0,72,0.00,,,0.00,Wunderground v.1.12,2013-12-02 21:14:00,
2013-12-02 16:15:00,44.3,35.8,29.90,NNW,328,0.0,0.0,72,0.00,,,0.00,Wunderground v.1.12,2013-12-02 21:15:00,
2013-12-02 16:16:00,44.2,35.7,29.90,NNW,327,0.0,0.0,72,0.00,,,0.00,Wunderground v.1.12,2013-12-02 21:16:00,
2013-12-02 16:17:00,44.1,35.6,29.90,NNW,328,0.0,0.0,72,0.00,,,0.00,Wunderground v.1.12,2013-12-02 21:17:00,
2013-12-02 16:19:00,44.0,35.9,29.90,NNW,328,0.0,0.0,73,0.00,,,0.00,Wunderground v.1.12,2013-12-02 21:19:00,
2013-12-02 16:20:00,44.0,35.9,29.90,NNW,328,0.0,0.0,73,0.00,,,0.00,Wunderground v.1.12,2013-12-02 21:20:00,
2013-12-02 16:21:00,43.9,35.8,29.90,NNW,328,0.0,0.0,73,0.00,,,0.00,Wunderground v.1.12,2013-12-02 21:21:00,
2013-12-02 16:22:00,43.8,36.0,29.90,NNW,329,0.0,0.0,74,0.00,,,0.00,Wunderground v.1.12,2013-12-02 21:22:00,
2013-12-02 16:24:00,43.7,36.0,29.90,NNW,328,0.0,0.0,74,0.00,,,0.00,Wunderground v.1.12,2013-12-02 21:24:00,
2013-12-02 16:25:00,43.6,36.2,29.90,NNW,328,0.0,0.0,75,0.00,,,0.00,Wunderground v.1.12,2013-12-02 21:25:00,
2013-12-02 16:26:00,43.5,36.1,29.90,NNW,328,0.0,0.0,75,0.00,,,0.00,Wunderground v.1.12,2013-12-02 21:26:00,
2013-12-02 16:27:00,43.3,35.9,29.90,NNW,328,0.0,0.0,75,0.00,,,0.00,Wunderground v.1.12,2013-12-02 21:27:00,
2013-12-02 16:29:00,43.2,35.5,29.90,NW,324,0.0,0.0,74,0.00,,,0.00,Wunderground v.1.12,2013-12-02 21:29:00,
2013-12-02 16:30:00,43.1,35.7,29.90,NW,323,0.0,0.0,75,0.00,,,0.00,Wunderground v.1.12,2013-12-02 21:30:00,
2013-12-02 16:31:00,43.1,35.4,29.90,NW,324,0.0,0.0,74,0.00,,,0.00,Wunderground v.1.12,2013-12-02 21:31:00,
2013-12-02 16:32:00,43.0,35.3,29.90,NW,324,0.0,0.0,74,0.00,,,0.00,Wunderground v.1.12,2013-12-02 21:32:00,
2013-12-02 16:33:00,43.0,35.3,29.90,NW,324,0.0,0.0,74,0.00,,,0.00,Wunderground v.1.12,2013-12-02 21:33:00,
2013-12-02 16:34:00,43.1,35.4,29.90,NW,323,0.0,0.0,74,0.00,,,0.00,Wunderground v.1.12,2013-12-02 21:34:00,
2013-12-02 16:35:00,43.1,35.4,29.90,NW,323,0.0,0.0,74,0.00,,,0.00,Wunderground v.1.12,2013-12-02 21:35:00,
2013-12-02 16:36:00,43.1,35.4,29.90,NW,323,0.0,0.0,74,0.00,,,0.00,Wunderground v.1.12,2013-12-02 21:36:00,
2013-12-02 16:37:00,43.1,35.4,29.90,NW,323,0.0,0.0,74,0.00,,,0.00,Wunderground v.1.12,2013-12-02 21:37:00,
2013-12-02 16:38:00,43.1,35.4,29.90,NW,323,0.0,0.0,74,0.00,,,0.00,Wunderground v.1.12,2013-12-02 21:38:00,
2013-12-02 16:40:00,43.1,35.4,29.90,NW,324,0.0,0.0,74,0.00,,,0.00,Wunderground v.1.12,2013-12-02 21:40:00,
2013-12-02 16:41:00,43.2,35.5,29.90,West,270,0.0,1.0,74,0.00,,,0.00,Wunderground v.1.12,2013-12-02 21:41:00,
2013-12-02 16:42:00,43.1,35.7,29.90,West,269,0.0,1.0,75,0.00,,,0.00,Wunderground v.1.12,2013-12-02 21:42:00,
2013-12-02 16:43:00,43.1,35.7,29.90,West,270,0.0,1.0,75,0.00,,,0.00,Wunderground v.1.12,2013-12-02 21:43:00,
2013-12-02 16:45:00,42.8,35.8,29.90,SW,230,0.0,1.0,76,0.00,,,0.00,Wunderground v.1.12,2013-12-02 21:45:00,
2013-12-02 16:46:00,42.7,35.7,29.90,SW,235,1.0,1.0,76,0.00,,,0.00,Wunderground v.1.12,2013-12-02 21:46:00,
2013-12-02 16:47:00,42.6,35.9,29.90,SSW,204,1.0,1.0,77,0.00,,,0.00,Wunderground v.1.12,2013-12-02 21:47:00,
2013-12-02 16:48:00,42.4,35.7,29.90,SSW,205,0.0,1.0,77,0.00,,,0.00,Wunderground v.1.12,2013-12-02 21:48:00,
2013-12-02 16:50:00,42.2,35.5,29.90,SSW,207,0.0,1.0,77,0.00,,,0.00,Wunderground v.1.12,2013-12-02 21:50:00,
2013-12-02 16:51:00,42.2,35.5,29.90,SSW,207,0.0,1.0,77,0.00,,,0.00,Wunderground v.1.12,2013-12-02 21:51:00,
2013-12-02 16:52:00,42.2,35.5,29.90,SSW,207,0.0,1.0,77,0.00,,,0.00,Wunderground v.1.12,2013-12-02 21:52:00,
2013-12-02 16:53:00,42.1,35.4,29.90,SSW,211,0.0,1.0,77,0.00,,,0.00,Wunderground v.1.12,2013-12-02 21:53:00,
2013-12-02 16:55:00,42.1,35.4,29.90,SSW,211,0.0,0.0,77,0.00,,,0.00,Wunderground v.1.12,2013-12-02 21:55:00,
2013-12-02 16:56:00,42.1,35.4,29.90,SSE,167,0.0,0.0,77,0.00,,,0.00,Wunderground v.1.12,2013-12-02 21:56:00,
2013-12-02 16:57:00,42.1,35.4,29.90,ESE,111,1.0,1.0,77,0.00,,,0.00,Wunderground v.1.12,2013-12-02 21:57:00,
2013-12-02 16:58:00,42.1,35.4,29.90,SE,135,0.0,0.0,77,0.00,,,0.00,Wunderground v.1.12,2013-12-02 21:58:00,
2013-12-02 17:00:00,42.0,35.3,29.90,SE,135,0.0,0.0,77,0.00,,,0.00,Wunderground v.1.12,2013-12-02 22:00:00,
2013-12-02 17:02:00,42.0,35.3,29.90,SW,225,0.0,1.0,77,0.00,,,0.00,Wunderground v.1.12,2013-12-02 22:02:00,
2013-12-02 17:03:00,41.9,35.2,29.90,South,191,3.0,3.0,77,0.00,,,0.00,Wunderground v.1.12,2013-12-02 22:03:00,
2013-12-02 17:05:00,41.8,35.1,29.90,SSE,158,0.0,3.0,77,0.00,,,0.00,Wunderground v.1.12,2013-12-02 22:05:00,
2013-12-02 17:07:00,41.8,35.1,29.90,South,169,1.0,3.0,77,0.00,,,0.00,Wunderground v.1.12,2013-12-02 22:07:00,
2013-12-02 17:09:00,41.8,35.1,29.90,South,188,0.0,1.0,77,0.00,,,0.00,Wunderground v.1.12,2013-12-02 22:09:00,
2013-12-02 17:11:00,41.7,35.0,29.90,SW,216,0.0,1.0,77,0.00,,,0.00,Wunderground v.1.12,2013-12-02 22:11:00,
2013-12-02 17:12:00,41.7,35.0,29.90,SW,217,0.0,1.0,77,0.00,,,0.00,Wunderground v.1.12,2013-12-02 22:12:00,
2013-12-02 17:14:00,41.6,35.2,29.91,SSE,156,0.0,1.0,78,0.00,,,0.00,Wunderground v.1.12,2013-12-02 22:14:00,
2013-12-02 17:17:00,41.5,35.2,29.91,SSE,165,0.0,1.0,78,0.00,,,0.00,Wunderground v.1.12,2013-12-02 22:17:00,
2013-12-02 17:19:00,41.4,35.1,29.91,SW,232,2.0,2.0,78,0.00,,,0.00,Wunderground v.1.12,2013-12-02 22:19:00,
2013-12-02 17:22:00,41.3,35.0,29.91,SSE,149,0.0,3.0,78,0.00,,,0.00,Wunderground v.1.12,2013-12-02 22:22:00,
2013-12-02 17:23:00,41.3,35.0,29.91,SSE,150,0.0,3.0,78,0.00,,,0.00,Wunderground v.1.12,2013-12-02 22:23:00,
2013-12-02 17:24:00,41.3,35.0,29.91,SSE,149,0.0,0.0,78,0.00,,,0.00,Wunderground v.1.12,2013-12-02 22:24:00,
2013-12-02 17:27:00,41.2,34.9,29.91,SSE,149,0.0,0.0,78,0.00,,,0.00,Wunderground v.1.12,2013-12-02 22:27:00,
2013-12-02 17:28:00,41.1,34.8,29.91,SW,222,0.0,1.0,78,0.00,,,0.00,Wunderground v.1.12,2013-12-02 22:28:00,
2013-12-02 17:30:00,41.1,34.8,29.91,SSW,197,0.0,0.0,78,0.00,,,0.00,Wunderground v.1.12,2013-12-02 22:30:00,
2013-12-02 17:32:00,41.0,35.0,29.91,SE,145,2.0,2.0,79,0.00,,,0.00,Wunderground v.1.12,2013-12-02 22:32:00,
2013-12-02 17:33:00,41.0,34.7,29.91,SE,125,0.0,2.0,78,0.00,,,0.00,Wunderground v.1.12,2013-12-02 22:33:00,
2013-12-02 17:35:00,40.9,34.9,29.91,SE,126,0.0,1.0,79,0.00,,,0.00,Wunderground v.1.12,2013-12-02 22:35:00,
2013-12-02 17:37:00,40.9,34.9,29.91,SE,125,0.0,1.0,79,0.00,,,0.00,Wunderground v.1.12,2013-12-02 22:37:00,
2013-12-02 17:38:00,40.9,34.9,29.91,SE,126,0.0,1.0,79,0.00,,,0.00,Wunderground v.1.12,2013-12-02 22:38:00,
2013-12-02 17:40:00,40.8,34.8,29.91,SW,233,1.0,2.0,79,0.00,,,0.00,Wunderground v.1.12,2013-12-02 22:40:00,
2013-12-02 17:42:00,40.7,34.7,29.91,South,173,1.0,2.0,79,0.00,,,0.00,Wunderground v.1.12,2013-12-02 22:42:00,
2013-12-02 17:43:00,40.8,34.8,29.91,ESE,113,0.0,2.0,79,0.00,,,0.00,Wunderground v.1.12,2013-12-02 22:43:00,
2013-12-02 17:45:00,40.7,34.7,29.91,ESE,113,0.0,0.0,79,0.00,,,0.00,Wunderground v.1.12,2013-12-02 22:45:00,
2013-12-02 17:47:00,40.7,34.7,29.91,SSE,160,0.0,3.0,79,0.00,,,0.00,Wunderground v.1.12,2013-12-02 22:47:00,
2013-12-02 17:48:00,40.7,34.7,29.91,WSW,245,0.0,3.0,79,0.00,,,0.00,Wunderground v.1.12,2013-12-02 22:48:00,
2013-12-02 17:49:00,40.7,34.7,29.91,SW,232,0.0,1.0,79,0.00,,,0.00,Wunderground v.1.12,2013-12-02 22:49:00,
2013-12-02 17:50:00,40.7,34.7,29.91,South,170,0.0,1.0,79,0.00,,,0.00,Wunderground v.1.12,2013-12-02 22:50:00,
2013-12-02 17:52:00,40.6,34.6,29.91,South,183,0.0,2.0,79,0.00,,,0.00,Wunderground v.1.12,2013-12-02 22:52:00,
2013-12-02 17:53:00,40.6,34.6,29.91,WSW,239,1.0,3.0,79,0.00,,,0.00,Wunderground v.1.12,2013-12-02 22:53:00,
2013-12-02 17:54:00,40.6,34.6,29.90,SSW,203,0.0,0.0,79,0.00,,,0.00,Wunderground v.1.12,2013-12-02 22:54:00,
2013-12-02 17:55:00,40.6,34.6,29.90,SW,221,0.0,1.0,79,0.00,,,0.00,Wunderground v.1.12,2013-12-02 22:55:00,
2013-12-02 17:57:00,40.5,34.5,29.90,SSE,155,1.0,2.0,79,0.00,,,0.00,Wunderground v.1.12,2013-12-02 22:57:00,
2013-12-02 17:58:00,40.5,34.5,29.91,SSE,156,0.0,0.0,79,0.00,,,0.00,Wunderground v.1.12,2013-12-02 22:58:00,
2013-12-02 17:59:00,40.5,34.5,29.90,ESE,107,0.0,0.0,79,0.00,,,0.00,Wunderground v.1.12,2013-12-02 22:59:00,
2013-12-02 18:00:00,40.4,34.4,29.90,West,277,1.0,1.0,79,0.00,,,0.00,Wunderground v.1.12,2013-12-02 23:00:00,
2013-12-02 18:03:00,40.4,34.4,29.91,SSW,210,0.0,3.0,79,0.00,,,0.00,Wunderground v.1.12,2013-12-02 23:03:00,
2013-12-02 18:04:00,40.4,34.4,29.91,SW,221,4.0,4.0,79,0.00,,,0.00,Wunderground v.1.12,2013-12-02 23:04:00,
2013-12-02 18:05:00,40.4,34.4,29.91,SSW,207,1.0,4.0,79,0.00,,,0.00,Wunderground v.1.12,2013-12-02 23:05:00,
2013-12-02 18:08:00,40.5,34.5,29.91,SW,229,0.0,4.0,79,0.00,,,0.00,Wunderground v.1.12,2013-12-02 23:08:00,
2013-12-02 18:09:00,40.5,34.5,29.91,SW,233,1.0,1.0,79,0.00,,,0.00,Wunderground v.1.12,2013-12-02 23:09:00,
2013-12-02 18:10:00,40.5,34.5,29.91,South,170,0.0,3.0,79,0.00,,,0.00,Wunderground v.1.12,2013-12-02 23:10:00,
2013-12-02 18:13:00,40.4,34.4,29.91,SW,222,2.0,3.0,79,0.00,,,0.00,Wunderground v.1.12,2013-12-02 23:13:00,
2013-12-02 18:14:00,40.4,34.4,29.91,SSW,212,0.0,2.0,79,0.00,,,0.00,Wunderground v.1.12,2013-12-02 23:14:00,
2013-12-02 18:15:00,40.4,34.4,29.91,South,174,0.0,2.0,79,0.00,,,0.00,Wunderground v.1.12,2013-12-02 23:15:00,
2013-12-02 18:18:00,40.4,34.4,29.91,SSE,155,1.0,1.0,79,0.00,,,0.00,Wunderground v.1.12,2013-12-02 23:18:00,
2013-12-02 18:19:00,40.4,34.4,29.91,SW,228,1.0,1.0,79,0.00,,,0.00,Wunderground v.1.12,2013-12-02 23:19:00,
2013-12-02 18:20:00,40.3,34.6,29.91,SSE,156,1.0,1.0,80,0.00,,,0.00,Wunderground v.1.12,2013-12-02 23:20:00,
2013-12-02 18:23:00,40.3,34.3,29.91,SSE,156,0.0,0.0,79,0.00,,,0.00,Wunderground v.1.12,2013-12-02 23:23:00,
2013-12-02 18:24:00,40.3,34.3,29.91,SSE,156,0.0,0.0,79,0.00,,,0.00,Wunderground v.1.12,2013-12-02 23:24:00,
2013-12-02 18:26:00,40.3,34.6,29.91,SSE,156,0.0,0.0,80,0.00,,,0.00,Wunderground v.1.12,2013-12-02 23:26:00,
2013-12-02 18:28:00,40.2,34.5,29.91,SW,218,0.0,0.0,80,0.00,,,0.00,Wunderground v.1.12,2013-12-02 23:28:00,
2013-12-02 18:29:00,40.2,34.5,29.90,SW,217,0.0,0.0,80,0.00,,,0.00,Wunderground v.1.12,2013-12-02 23:29:00,
2013-12-02 18:31:00,40.2,34.5,29.90,SW,217,0.0,0.0,80,0.00,,,0.00,Wunderground v.1.12,2013-12-02 23:31:00,
2013-12-02 18:34:00,40.1,34.4,29.91,SSE,156,1.0,1.0,80,0.00,,,0.00,Wunderground v.1.12,2013-12-02 23:34:00,
2013-12-02 18:35:00,40.0,34.3,29.91,SSE,166,2.0,2.0,80,0.00,,,0.00,Wunderground v.1.12,2013-12-02 23:35:00,
2013-12-02 18:36:00,40.0,34.3,29.91,WSW,239,2.0,2.0,80,0.00,,,0.00,Wunderground v.1.12,2013-12-02 23:36:00,
2013-12-02 18:39:00,40.1,34.4,29.91,SW,226,0.0,0.0,80,0.00,,,0.00,Wunderground v.1.12,2013-12-02 23:39:00,
2013-12-02 18:40:00,40.1,34.4,29.91,SW,226,0.0,0.0,80,0.00,,,0.00,Wunderground v.1.12,2013-12-02 23:40:00,
2013-12-02 18:41:00,40.1,34.4,29.91,SW,226,0.0,0.0,80,0.00,,,0.00,Wunderground v.1.12,2013-12-02 23:41:00,
2013-12-02 18:44:00,40.0,34.3,29.91,SW,224,0.0,0.0,80,0.00,,,0.00,Wunderground v.1.12,2013-12-02 23:44:00,
2013-12-02 18:45:00,40.0,34.3,29.91,SW,224,0.0,0.0,80,0.00,,,0.00,Wunderground v.1.12,2013-12-02 23:45:00,
2013-12-02 18:46:00,40.0,34.3,29.91,SE,136,1.0,1.0,80,0.00,,,0.00,Wunderground v.1.12,2013-12-02 23:46:00,
2013-12-02 18:49:00,39.9,34.2,29.91,SW,218,0.0,3.0,80,0.00,,,0.00,Wunderground v.1.12,2013-12-02 23:49:00,
2013-12-02 18:50:00,39.9,34.2,29.91,SW,218,0.0,3.0,80,0.00,,,0.00,Wunderground v.1.12,2013-12-02 23:50:00,
2013-12-02 18:51:00,39.9,34.2,29.91,South,172,1.0,3.0,80,0.00,,,0.00,Wunderground v.1.12,2013-12-02 23:51:00,
2013-12-02 18:54:00,40.0,34.3,29.91,SW,226,0.0,0.0,80,0.00,,,0.00,Wunderground v.1.12,2013-12-02 23:54:00,
2013-12-02 18:55:00,40.0,34.3,29.91,SW,226,0.0,0.0,80,0.00,,,0.00,Wunderground v.1.12,2013-12-02 23:55:00,
2013-12-02 18:56:00,40.0,34.3,29.91,SW,226,0.0,0.0,80,0.00,,,0.00,Wunderground v.1.12,2013-12-02 23:56:00,
2013-12-02 18:57:00,39.9,34.2,29.91,SW,225,0.0,0.0,80,0.00,,,0.00,Wunderground v.1.12,2013-12-02 23:57:00,
2013-12-02 18:59:00,39.9,34.2,29.91,SW,226,0.0,0.0,80,0.00,,,0.00,Wunderground v.1.12,2013-12-02 23:59:00,
2013-12-02 19:00:00,39.9,34.2,29.91,SW,226,0.0,0.0,80,0.00,,,0.00,Wunderground v.1.12,2013-12-03 00:00:00,
2013-12-02 19:01:00,39.9,34.5,29.91,SW,225,0.0,0.0,81,0.00,,,0.00,Wunderground v.1.12,2013-12-03 00:01:00,
2013-12-02 19:02:00,39.8,34.1,29.91,South,169,0.0,1.0,80,0.00,,,0.00,Wunderground v.1.12,2013-12-03 00:02:00,
2013-12-02 19:05:00,39.8,34.4,29.91,South,181,0.0,0.0,81,0.00,,,0.00,Wunderground v.1.12,2013-12-03 00:05:00,
2013-12-02 19:06:00,39.7,34.3,29.90,South,181,0.0,1.0,81,0.00,,,0.00,Wunderground v.1.12,2013-12-03 00:06:00,
2013-12-02 19:07:00,39.7,34.3,29.90,SW,222,0.0,1.0,81,0.00,,,0.00,Wunderground v.1.12,2013-12-03 00:07:00,
2013-12-02 19:10:00,39.6,34.2,29.90,SSW,210,0.0,0.0,81,0.00,,,0.00,Wunderground v.1.12,2013-12-03 00:10:00,
2013-12-02 19:11:00,39.6,34.2,29.90,SW,225,0.0,1.0,81,0.00,,,0.00,Wunderground v.1.12,2013-12-03 00:11:00,
2013-12-02 19:12:00,39.6,34.2,29.90,SSW,198,0.0,1.0,81,0.00,,,0.00,Wunderground v.1.12,2013-12-03 00:12:00,
2013-12-02 19:15:00,39.5,34.2,29.91,SW,231,0.0,2.0,81,0.00,,,0.00,Wunderground v.1.12,2013-12-03 00:15:00,
2013-12-02 19:16:00,39.5,34.2,29.91,SW,231,0.0,2.0,81,0.00,,,0.00,Wunderground v.1.12,2013-12-03 00:16:00,
2013-12-02 19:17:00,39.5,34.2,29.91,SW,231,0.0,2.0,81,0.00,,,0.00,Wunderground v.1.12,2013-12-03 00:17:00,
2013-12-02 19:20:00,39.5,34.2,29.90,SW,231,0.0,0.0,81,0.00,,,0.00,Wunderground v.1.12,2013-12-03 00:20:00,
2013-12-02 19:21:00,39.5,34.2,29.90,SW,231,0.0,0.0,81,0.00,,,0.00,Wunderground v.1.12,2013-12-03 00:21:00,
2013-12-02 19:22:00,39.5,34.2,29.90,WSW,242,0.0,1.0,81,0.00,,,0.00,Wunderground v.1.12,2013-12-03 00:22:00,
2013-12-02 19:25:00,39.4,34.1,29.90,WSW,240,0.0,0.0,81,0.00,,,0.00,Wunderground v.1.12,2013-12-03 00:25:00,
2013-12-02 19:26:00,39.4,34.1,29.91,WSW,240,0.0,0.0,81,0.00,,,0.00,Wunderground v.1.12,2013-12-03 00:26:00,
2013-12-02 19:27:00,39.4,34.1,29.90,WSW,240,0.0,0.0,81,0.00,,,0.00,Wunderground v.1.12,2013-12-03 00:27:00,
2013-12-02 19:28:00,39.3,34.3,29.90,WSW,240,0.0,0.0,82,0.00,,,0.00,Wunderground v.1.12,2013-12-03 00:28:00,
2013-12-02 19:30:00,39.3,34.3,29.90,WSW,240,0.0,0.0,82,0.00,,,0.00,Wunderground v.1.12,2013-12-03 00:30:00,
2013-12-02 19:31:00,39.2,34.2,29.90,WSW,240,0.0,0.0,82,0.00,,,0.00,Wunderground v.1.12,2013-12-03 00:31:00,
2013-12-02 19:32:00,39.2,34.2,29.90,WSW,240,0.0,0.0,82,0.00,,,0.00,Wunderground v.1.12,2013-12-03 00:32:00,
2013-12-02 19:34:00,39.1,34.1,29.91,WSW,243,0.0,1.0,82,0.00,,,0.00,Wunderground v.1.12,2013-12-03 00:34:00,
2013-12-02 19:35:00,39.0,34.0,29.91,SW,229,0.0,1.0,82,0.00,,,0.00,Wunderground v.1.12,2013-12-03 00:35:00,
2013-12-02 19:36:00,39.0,34.0,29.91,SW,234,0.0,1.0,82,0.00,,,0.00,Wunderground v.1.12,2013-12-03 00:36:00,
2013-12-02 19:37:00,39.0,34.0,29.91,West,263,1.0,1.0,82,0.00,,,0.00,Wunderground v.1.12,2013-12-03 00:37:00,
2013-12-02 19:39:00,39.0,34.0,29.91,South,176,2.0,3.0,82,0.00,,,0.00,Wunderground v.1.12,2013-12-03 00:39:00,
2013-12-02 19:40:00,39.1,34.1,29.91,SW,225,1.0,2.0,82,0.00,,,0.00,Wunderground v.1.12,2013-12-03 00:40:00,
2013-12-02 19:41:00,39.1,34.1,29.91,SW,230,1.0,2.0,82,0.00,,,0.00,Wunderground v.1.12,2013-12-03 00:41:00,
2013-12-02 19:42:00,39.1,34.1,29.91,SW,231,1.0,2.0,82,0.00,,,0.00,Wunderground v.1.12,2013-12-03 00:42:00,
2013-12-02 19:44:00,39.1,34.1,29.91,SW,231,0.0,1.0,82,0.00,,,0.00,Wunderground v.1.12,2013-12-03 00:44:00,
2013-12-02 19:45:00,39.1,34.1,29.91,WSW,240,0.0,1.0,82,0.00,,,0.00,Wunderground v.1.12,2013-12-03 00:45:00,
2013-12-02 19:46:00,39.1,34.1,29.91,WSW,244,0.0,1.0,82,0.00,,,0.00,Wunderground v.1.12,2013-12-03 00:46:00,
2013-12-02 19:47:00,39.1,34.1,29.91,SW,228,0.0,1.0,82,0.00,,,0.00,Wunderground v.1.12,2013-12-03 00:47:00,
2013-12-02 19:49:00,39.1,34.1,29.91,WSW,248,0.0,1.0,82,0.00,,,0.00,Wunderground v.1.12,2013-12-03 00:49:00,
2013-12-02 19:50:00,39.1,34.1,29.90,WSW,246,0.0,1.0,82,0.00,,,0.00,Wunderground v.1.12,2013-12-03 00:50:00,
2013-12-02 19:51:00,39.1,34.1,29.90,WSW,246,0.0,1.0,82,0.00,,,0.00,Wunderground v.1.12,2013-12-03 00:51:00,
2013-12-02 19:52:00,39.1,34.1,29.90,SW,220,1.0,1.0,82,0.00,,,0.00,Wunderground v.1.12,2013-12-03 00:52:00,
2013-12-02 19:53:00,39.1,34.1,29.90,WSW,239,0.0,1.0,82,0.00,,,0.00,Wunderground v.1.12,2013-12-03 00:53:00,
2013-12-02 19:55:00,39.0,34.0,29.90,SW,222,0.0,1.0,82,0.00,,,0.00,Wunderground v.1.12,2013-12-03 00:55:00,
2013-12-02 19:56:00,39.0,34.0,29.90,SW,214,2.0,2.0,82,0.00,,,0.00,Wunderground v.1.12,2013-12-03 00:56:00,
2013-12-02 19:57:00,39.0,34.0,29.90,SW,217,0.0,2.0,82,0.00,,,0.00,Wunderground v.1.12,2013-12-03 00:57:00,
2013-12-02 19:58:00,38.9,33.9,29.90,SW,217,0.0,2.0,82,0.00,,,0.00,Wunderground v.1.12,2013-12-03 00:58:00,
2013-12-02 20:00:00,38.9,33.9,29.90,SSE,158,0.0,2.0,82,0.00,,,0.00,Wunderground v.1.12,2013-12-03 01:00:00,
2013-12-02 20:01:00,38.9,33.9,29.90,SSW,200,1.0,2.0,82,0.00,,,0.00,Wunderground v.1.12,2013-12-03 01:01:00,
2013-12-02 20:02:00,38.9,33.9,29.90,SSW,193,0.0,4.0,82,0.00,,,0.00,Wunderground v.1.12,2013-12-03 01:02:00,
2013-12-02 20:03:00,38.9,33.9,29.90,SSW,204,2.0,4.0,82,0.00,,,0.00,Wunderground v.1.12,2013-12-03 01:03:00,
2013-12-02 20:05:00,38.9,33.9,29.90,South,172,1.0,1.0,82,0.00,,,0.00,Wunderground v.1.12,2013-12-03 01:05:00,
2013-12-02 20:06:00,38.9,33.9,29.90,South,172,0.0,1.0,82,0.00,,,0.00,Wunderground v.1.12,2013-12-03 01:06:00,
2013-12-02 20:07:00,38.9,33.9,29.90,SW,224,0.0,2.0,82,0.00,,,0.00,Wunderground v.1.12,2013-12-03 01:07:00,
2013-12-02 20:09:00,38.9,33.9,29.90,SSE,156,0.0,2.0,82,0.00,,,0.00,Wunderground v.1.12,2013-12-03 01:09:00,
2013-12-02 20:11:00,38.9,33.9,29.91,South,181,0.0,3.0,82,0.00,,,0.00,Wunderground v.1.12,2013-12-03 01:11:00,
2013-12-02 20:12:00,38.9,33.9,29.91,WSW,255,0.0,3.0,82,0.00,,,0.00,Wunderground v.1.12,2013-12-03 01:12:00,
2013-12-02 20:14:00,38.9,33.9,29.91,WSW,255,0.0,0.0,82,0.00,,,0.00,Wunderground v.1.12,2013-12-03 01:14:00,
2013-12-02 20:16:00,38.9,33.9,29.91,SW,236,0.0,1.0,82,0.00,,,0.00,Wunderground v.1.12,2013-12-03 01:16:00,
2013-12-02 20:17:00,38.9,33.9,29.91,SW,230,0.0,1.0,82,0.00,,,0.00,Wunderground v.1.12,2013-12-03 01:17:00,
2013-12-02 20:18:00,38.9,33.9,29.91,SW,232,0.0,1.0,82,0.00,,,0.00,Wunderground v.1.12,2013-12-03 01:18:00,
2013-12-02 20:19:00,38.9,33.9,29.91,SW,228,0.0,0.0,82,0.00,,,0.00,Wunderground v.1.12,2013-12-03 01:19:00,
2013-12-02 20:21:00,38.9,33.9,29.91,SSW,204,1.0,1.0,82,0.00,,,0.00,Wunderground v.1.12,2013-12-03 01:21:00,
2013-12-02 20:22:00,38.9,33.9,29.91,West,260,0.0,1.0,82,0.00,,,0.00,Wunderground v.1.12,2013-12-03 01:22:00,
2013-12-02 20:23:00,38.9,33.9,29.91,West,260,0.0,1.0,82,0.00,,,0.00,Wunderground v.1.12,2013-12-03 01:23:00,
2013-12-02 20:25:00,38.9,33.9,29.91,West,260,0.0,0.0,82,0.00,,,0.00,Wunderground v.1.12,2013-12-03 01:25:00,
2013-12-02 20:26:00,38.9,33.9,29.91,West,260,0.0,0.0,82,0.00,,,0.00,Wunderground v.1.12,2013-12-03 01:26:00,
2013-12-02 20:27:00,38.9,33.9,29.91,SSE,149,0.0,0.0,82,0.00,,,0.00,Wunderground v.1.12,2013-12-03 01:27:00,
2013-12-02 20:28:00,38.8,33.8,29.91,SSE,149,0.0,0.0,82,0.00,,,0.00,Wunderground v.1.12,2013-12-03 01:28:00,
2013-12-02 20:30:00,38.8,33.8,29.91,SSE,150,0.0,0.0,82,0.00,,,0.00,Wunderground v.1.12,2013-12-03 01:30:00,
2013-12-02 20:31:00,38.7,33.7,29.91,SSE,149,0.0,0.0,82,0.00,,,0.00,Wunderground v.1.12,2013-12-03 01:31:00,
2013-12-02 20:32:00,38.7,33.7,29.91,SW,233,0.0,0.0,82,0.00,,,0.00,Wunderground v.1.12,2013-12-03 01:32:00,
2013-12-02 20:33:00,38.6,33.9,29.91,West,264,0.0,1.0,83,0.00,,,0.00,Wunderground v.1.12,2013-12-03 01:33:00,
2013-12-02 20:35:00,38.5,33.8,29.90,SW,233,0.0,0.0,83,0.00,,,0.00,Wunderground v.1.12,2013-12-03 01:35:00,
2013-12-02 20:36:00,38.5,33.8,29.90,SW,233,0.0,0.0,83,0.00,,,0.00,Wunderground v.1.12,2013-12-03 01:36:00,
2013-12-02 20:37:00,38.5,33.8,29.90,SW,233,0.0,0.0,83,0.00,,,0.00,Wunderground v.1.12,2013-12-03 01:37:00,
2013-12-02 20:38:00,38.4,33.7,29.90,SW,233,0.0,0.0,83,0.00,,,0.00,Wunderground v.1.12,2013-12-03 01:38:00,
2013-12-02 20:40:00,38.3,33.6,29.90,SW,231,0.0,1.0,83,0.00,,,0.00,Wunderground v.1.12,2013-12-03 01:40:00,
2013-12-02 20:41:00,38.3,33.6,29.90,SW,226,1.0,1.0,83,0.00,,,0.00,Wunderground v.1.12,2013-12-03 01:41:00,
2013-12-02 20:42:00,38.3,33.6,29.90,SW,226,0.0,1.0,83,0.00,,,0.00,Wunderground v.1.12,2013-12-03 01:42:00,
2013-12-02 20:43:00,38.3,33.6,29.90,SW,226,0.0,1.0,83,0.00,,,0.00,Wunderground v.1.12,2013-12-03 01:43:00,
2013-12-02 20:44:00,38.3,33.6,29.90,SW,228,0.0,1.0,83,0.00,,,0.00,Wunderground v.1.12,2013-12-03 01:44:00,
2013-12-02 20:45:00,38.3,33.6,29.90,SW,228,0.0,1.0,83,0.00,,,0.00,Wunderground v.1.12,2013-12-03 01:45:00,
2013-12-02 20:46:00,38.3,33.6,29.90,SW,235,0.0,1.0,83,0.00,,,0.00,Wunderground v.1.12,2013-12-03 01:46:00,
2013-12-02 20:47:00,38.3,33.6,29.90,SW,233,0.0,1.0,83,0.00,,,0.00,Wunderground v.1.12,2013-12-03 01:47:00,
2013-12-02 20:48:00,38.3,33.6,29.90,SW,233,0.0,1.0,83,0.00,,,0.00,Wunderground v.1.12,2013-12-03 01:48:00,
2013-12-02 20:49:00,38.3,33.6,29.90,SW,233,0.0,1.0,83,0.00,,,0.00,Wunderground v.1.12,2013-12-03 01:49:00,
2013-12-02 20:51:00,38.3,33.6,29.90,SW,235,0.0,0.0,83,0.00,,,0.00,Wunderground v.1.12,2013-12-03 01:51:00,
2013-12-02 20:52:00,38.2,33.5,29.90,SW,235,0.0,1.0,83,0.00,,,0.00,Wunderground v.1.12,2013-12-03 01:52:00,
2013-12-02 20:53:00,38.2,33.5,29.90,SW,235,0.0,1.0,83,0.00,,,0.00,Wunderground v.1.12,2013-12-03 01:53:00,
2013-12-02 20:54:00,38.2,33.5,29.90,SW,236,0.0,1.0,83,0.00,,,0.00,Wunderground v.1.12,2013-12-03 01:54:00,
2013-12-02 20:56:00,38.2,33.5,29.90,SW,236,0.0,1.0,83,0.00,,,0.00,Wunderground v.1.12,2013-12-03 01:56:00,
2013-12-02 20:57:00,38.2,33.5,29.90,SW,236,0.0,1.0,83,0.00,,,0.00,Wunderground v.1.12,2013-12-03 01:57:00,
2013-12-02 20:58:00,38.3,33.6,29.90,SW,236,0.0,1.0,83,0.00,,,0.00,Wunderground v.1.12,2013-12-03 01:58:00,
2013-12-02 20:59:00,38.3,33.6,29.90,SW,236,0.0,0.0,83,0.00,,,0.00,Wunderground v.1.12,2013-12-03 01:59:00,
2013-12-02 21:01:00,38.3,33.6,29.90,SW,236,0.0,0.0,83,0.00,,,0.00,Wunderground v.1.12,2013-12-03 02:01:00,
2013-12-02 21:02:00,38.3,33.6,29.90,SW,236,0.0,0.0,83,0.00,,,0.00,Wunderground v.1.12,2013-12-03 02:02:00,
2013-12-02 21:03:00,38.3,33.6,29.90,SW,236,0.0,0.0,83,0.00,,,0.00,Wunderground v.1.12,2013-12-03 02:03:00,
2013-12-02 21:04:00,38.2,33.5,29.90,SW,236,0.0,0.0,83,0.00,,,0.00,Wunderground v.1.12,2013-12-03 02:04:00,
2013-12-02 21:06:00,38.2,33.5,29.90,SW,236,0.0,0.0,83,0.00,,,0.00,Wunderground v.1.12,2013-12-03 02:06:00,
2013-12-02 21:07:00,38.2,33.5,29.90,SW,236,0.0,0.0,83,0.00,,,0.00,Wunderground v.1.12,2013-12-03 02:07:00,
2013-12-02 21:08:00,38.2,33.5,29.90,SW,236,0.0,0.0,83,0.00,,,0.00,Wunderground v.1.12,2013-12-03 02:08:00,
2013-12-02 21:09:00,38.2,33.5,29.90,SW,236,0.0,0.0,83,0.00,,,0.00,Wunderground v.1.12,2013-12-03 02:09:00,
2013-12-02 21:12:00,38.2,33.5,29.90,SW,236,0.0,0.0,83,0.00,,,0.00,Wunderground v.1.12,2013-12-03 02:12:00,
2013-12-02 21:13:00,38.2,33.5,29.90,SW,236,0.0,0.0,83,0.00,,,0.00,Wunderground v.1.12,2013-12-03 02:13:00,
2013-12-02 21:14:00,38.2,33.5,29.90,SW,236,0.0,0.0,83,0.00,,,0.00,Wunderground v.1.12,2013-12-03 02:14:00,
2013-12-02 21:17:00,38.2,33.5,29.90,SW,236,0.0,0.0,83,0.00,,,0.00,Wunderground v.1.12,2013-12-03 02:17:00,
2013-12-02 21:18:00,38.2,33.5,29.90,SW,236,0.0,0.0,83,0.00,,,0.00,Wunderground v.1.12,2013-12-03 02:18:00,
2013-12-02 21:19:00,38.2,33.5,29.90,SW,236,0.0,0.0,83,0.00,,,0.00,Wunderground v.1.12,2013-12-03 02:19:00,
2013-12-02 21:20:00,38.1,33.4,29.90,SW,236,0.0,0.0,83,0.00,,,0.00,Wunderground v.1.12,2013-12-03 02:20:00,
2013-12-02 21:22:00,38.0,33.3,29.90,SW,236,0.0,1.0,83,0.00,,,0.00,Wunderground v.1.12,2013-12-03 02:22:00,
2013-12-02 21:23:00,37.9,33.2,29.90,SW,236,0.0,1.0,83,0.00,,,0.00,Wunderground v.1.12,2013-12-03 02:23:00,
2013-12-02 21:24:00,37.9,33.5,29.90,SW,236,0.0,0.0,84,0.00,,,0.00,Wunderground v.1.12,2013-12-03 02:24:00,
2013-12-02 21:25:00,37.8,33.4,29.90,SW,236,0.0,0.0,84,0.00,,,0.00,Wunderground v.1.12,2013-12-03 02:25:00,
2013-12-02 21:27:00,37.8,33.4,29.90,SW,236,0.0,0.0,84,0.00,,,0.00,Wunderground v.1.12,2013-12-03 02:27:00,
2013-12-02 21:29:00,37.8,33.4,29.90,SW,236,0.0,0.0,84,0.00,,,0.00,Wunderground v.1.12,2013-12-03 02:29:00,
2013-12-02 21:30:00,37.8,33.4,29.90,SW,236,0.0,0.0,84,0.00,,,0.00,Wunderground v.1.12,2013-12-03 02:30:00,
2013-12-02 21:32:00,37.7,33.3,29.90,SW,236,0.0,0.0,84,0.00,,,0.00,Wunderground v.1.12,2013-12-03 02:32:00,
2013-12-02 21:33:00,37.7,33.3,29.90,SW,236,0.0,0.0,84,0.00,,,0.00,Wunderground v.1.12,2013-12-03 02:33:00,
2013-12-02 21:34:00,37.7,33.3,29.90,SW,236,0.0,0.0,84,0.00,,,0.00,Wunderground v.1.12,2013-12-03 02:34:00,
2013-12-02 21:35:00,37.7,33.3,29.90,SW,236,0.0,0.0,84,0.00,,,0.00,Wunderground v.1.12,2013-12-03 02:35:00,
2013-12-02 21:37:00,37.6,33.5,29.90,SW,236,0.0,0.0,85,0.00,,,0.00,Wunderground v.1.12,2013-12-03 02:37:00,
2013-12-02 21:38:00,37.5,33.4,29.90,SW,236,0.0,0.0,85,0.00,,,0.00,Wunderground v.1.12,2013-12-03 02:38:00,
2013-12-02 21:39:00,37.4,33.3,29.90,SW,236,0.0,0.0,85,0.00,,,0.00,Wunderground v.1.12,2013-12-03 02:39:00,
2013-12-02 21:40:00,37.2,33.4,29.90,SW,236,0.0,0.0,86,0.00,,,0.00,Wunderground v.1.12,2013-12-03 02:40:00,
2013-12-02 21:42:00,37.1,33.3,29.90,SW,236,0.0,0.0,86,0.00,,,0.00,Wunderground v.1.12,2013-12-03 02:42:00,
2013-12-02 21:43:00,37.0,33.2,29.90,SW,236,0.0,0.0,86,0.00,,,0.00,Wunderground v.1.12,2013-12-03 02:43:00,
2013-12-02 21:44:00,36.9,33.1,29.90,SW,236,0.0,0.0,86,0.00,,,0.00,Wunderground v.1.12,2013-12-03 02:44:00,
2013-12-02 21:46:00,36.8,33.3,29.90,SW,236,0.0,0.0,87,0.00,,,0.00,Wunderground v.1.12,2013-12-03 02:46:00,
2013-12-02 21:47:00,36.6,33.1,29.90,SW,236,0.0,0.0,87,0.00,,,0.00,Wunderground v.1.12,2013-12-03 02:47:00,
2013-12-02 21:48:00,36.6,33.1,29.90,SW,236,0.0,0.0,87,0.00,,,0.00,Wunderground v.1.12,2013-12-03 02:48:00,
2013-12-02 21:49:00,36.6,33.1,29.90,SW,236,0.0,0.0,87,0.00,,,0.00,Wunderground v.1.12,2013-12-03 02:49:00,
2013-12-02 21:51:00,36.5,33.3,29.90,SW,236,0.0,0.0,88,0.00,,,0.00,Wunderground v.1.12,2013-12-03 02:51:00,
2013-12-02 21:52:00,36.5,33.3,29.90,SW,236,0.0,0.0,88,0.00,,,0.00,Wunderground v.1.12,2013-12-03 02:52:00,
2013-12-02 21:53:00,36.4,33.2,29.90,SW,236,0.0,0.0,88,0.00,,,0.00,Wunderground v.1.12,2013-12-03 02:53:00,
2013-12-02 21:54:00,36.4,33.2,29.90,SW,236,0.0,0.0,88,0.00,,,0.00,Wunderground v.1.12,2013-12-03 02:54:00,
2013-12-02 21:55:00,36.3,33.1,29.90,SW,236,0.0,0.0,88,0.00,,,0.00,Wunderground v.1.12,2013-12-03 02:55:00,
2013-12-02 21:56:00,36.3,33.1,29.90,SW,236,0.0,0.0,88,0.00,,,0.00,Wunderground v.1.12,2013-12-03 02:56:00,
2013-12-02 21:57:00,36.2,33.0,29.90,SW,236,0.0,0.0,88,0.00,,,0.00,Wunderground v.1.12,2013-12-03 02:57:00,
2013-12-02 21:59:00,36.2,33.3,29.90,SW,236,0.0,0.0,89,0.00,,,0.00,Wunderground v.1.12,2013-12-03 02:59:00,
2013-12-02 22:00:00,36.1,33.2,29.90,SW,236,0.0,0.0,89,0.00,,,0.00,Wunderground v.1.12,2013-12-03 03:00:00,
2013-12-02 22:02:00,36.1,33.2,29.90,SW,236,0.0,0.0,89,0.00,,,0.00,Wunderground v.1.12,2013-12-03 03:02:00,
2013-12-02 22:04:00,36.1,33.2,29.90,SW,236,0.0,0.0,89,0.00,,,0.00,Wunderground v.1.12,2013-12-03 03:04:00,
2013-12-02 22:05:00,36.1,33.2,29.90,SW,236,0.0,0.0,89,0.00,,,0.00,Wunderground v.1.12,2013-12-03 03:05:00,
2013-12-02 22:07:00,36.1,33.2,29.90,SW,236,0.0,0.0,89,0.00,,,0.00,Wunderground v.1.12,2013-12-03 03:07:00,
2013-12-02 22:09:00,36.0,33.1,29.90,SW,236,0.0,0.0,89,0.00,,,0.00,Wunderground v.1.12,2013-12-03 03:09:00,
2013-12-02 22:10:00,36.1,33.2,29.90,SW,236,0.0,0.0,89,0.00,,,0.00,Wunderground v.1.12,2013-12-03 03:10:00,
2013-12-02 22:12:00,36.0,33.1,29.90,SW,236,0.0,0.0,89,0.00,,,0.00,Wunderground v.1.12,2013-12-03 03:12:00,
2013-12-02 22:13:00,36.0,33.1,29.90,SW,236,0.0,0.0,89,0.00,,,0.00,Wunderground v.1.12,2013-12-03 03:13:00,
2013-12-02 22:14:00,36.1,33.2,29.90,SW,236,0.0,0.0,89,0.00,,,0.00,Wunderground v.1.12,2013-12-03 03:14:00,
2013-12-02 22:15:00,36.1,33.2,29.90,SW,236,0.0,0.0,89,0.00,,,0.00,Wunderground v.1.12,2013-12-03 03:15:00,
2013-12-02 22:17:00,36.1,33.2,29.89,SW,236,0.0,0.0,89,0.00,,,0.00,Wunderground v.1.12,2013-12-03 03:17:00,
2013-12-02 22:18:00,36.1,32.9,29.89,SW,236,0.0,0.0,88,0.00,,,0.00,Wunderground v.1.12,2013-12-03 03:18:00,
2013-12-02 22:19:00,36.1,33.2,29.90,SW,236,0.0,0.0,89,0.00,,,0.00,Wunderground v.1.12,2013-12-03 03:19:00,
2013-12-02 22:20:00,36.1,33.2,29.90,SW,236,0.0,0.0,89,0.00,,,0.00,Wunderground v.1.12,2013-12-03 03:20:00,
2013-12-02 22:22:00,36.0,33.1,29.90,SW,236,0.0,0.0,89,0.00,,,0.00,Wunderground v.1.12,2013-12-03 03:22:00,
2013-12-02 22:24:00,35.9,33.0,29.89,SW,236,0.0,0.0,89,0.00,,,0.00,Wunderground v.1.12,2013-12-03 03:24:00,
2013-12-02 22:25:00,35.8,32.9,29.90,SW,236,0.0,0.0,89,0.00,,,0.00,Wunderground v.1.12,2013-12-03 03:25:00,
2013-12-02 22:27:00,35.8,33.2,29.90,SW,236,0.0,0.0,90,0.00,,,0.00,Wunderground v.1.12,2013-12-03 03:27:00,
2013-12-02 22:29:00,35.8,33.2,29.90,SW,236,0.0,0.0,90,0.00,,,0.00,Wunderground v.1.12,2013-12-03 03:29:00,
2013-12-02 22:30:00,35.7,33.1,29.90,SW,236,0.0,0.0,90,0.00,,,0.00,Wunderground v.1.12,2013-12-03 03:30:00,
2013-12-02 22:32:00,35.7,33.1,29.90,SW,236,0.0,0.0,90,0.00,,,0.00,Wunderground v.1.12,2013-12-03 03:32:00,
2013-12-02 22:34:00,35.7,33.1,29.90,SW,236,0.0,0.0,90,0.00,,,0.00,Wunderground v.1.12,2013-12-03 03:34:00,
2013-12-02 22:35:00,35.7,33.1,29.90,SW,236,0.0,0.0,90,0.00,,,0.00,Wunderground v.1.12,2013-12-03 03:35:00,
2013-12-02 22:36:00,35.7,33.1,29.90,SW,236,0.0,0.0,90,0.00,,,0.00,Wunderground v.1.12,2013-12-03 03:36:00,
2013-12-02 22:37:00,35.7,33.1,29.90,SW,236,0.0,0.0,90,0.00,,,0.00,Wunderground v.1.12,2013-12-03 03:37:00,
2013-12-02 22:40:00,35.6,33.0,29.90,SW,236,0.0,0.0,90,0.00,,,0.00,Wunderground v.1.12,2013-12-03 03:40:00,
2013-12-02 22:41:00,35.6,33.0,29.90,SW,236,0.0,0.0,90,0.00,,,0.00,Wunderground v.1.12,2013-12-03 03:41:00,
2013-12-02 22:42:00,35.6,33.0,29.90,SW,236,0.0,0.0,90,0.00,,,0.00,Wunderground v.1.12,2013-12-03 03:42:00,
2013-12-02 22:45:00,35.5,32.9,29.90,SW,236,0.0,0.0,90,0.00,,,0.00,Wunderground v.1.12,2013-12-03 03:45:00,
2013-12-02 22:46:00,35.5,32.9,29.90,SW,236,0.0,0.0,90,0.00,,,0.00,Wunderground v.1.12,2013-12-03 03:46:00,
2013-12-02 22:47:00,35.5,32.9,29.90,SW,236,0.0,0.0,90,0.00,,,0.00,Wunderground v.1.12,2013-12-03 03:47:00,
2013-12-02 22:50:00,35.5,32.9,29.90,SW,236,0.0,0.0,90,0.00,,,0.00,Wunderground v.1.12,2013-12-03 03:50:00,
2013-12-02 22:51:00,35.4,32.8,29.90,SW,236,0.0,0.0,90,0.00,,,0.00,Wunderground v.1.12,2013-12-03 03:51:00,
2013-12-02 22:53:00,35.4,32.8,29.90,SW,236,0.0,0.0,90,0.00,,,0.00,Wunderground v.1.12,2013-12-03 03:53:00,
2013-12-02 22:55:00,35.4,32.8,29.90,SW,236,0.0,0.0,90,0.00,,,0.00,Wunderground v.1.12,2013-12-03 03:55:00,
2013-12-02 22:56:00,35.4,32.8,29.90,SW,236,0.0,0.0,90,0.00,,,0.00,Wunderground v.1.12,2013-12-03 03:56:00,
2013-12-02 22:58:00,35.3,32.7,29.90,SW,236,0.0,0.0,90,0.00,,,0.00,Wunderground v.1.12,2013-12-03 03:58:00,
2013-12-02 23:00:00,35.3,32.7,29.90,SW,236,0.0,0.0,90,0.00,,,0.00,Wunderground v.1.12,2013-12-03 04:00:00,
2013-12-02 23:01:00,35.3,32.7,29.91,SW,236,0.0,0.0,90,0.00,,,0.00,Wunderground v.1.12,2013-12-03 04:01:00,
2013-12-02 23:03:00,35.2,32.6,29.91,SW,236,0.0,0.0,90,0.00,,,0.00,Wunderground v.1.12,2013-12-03 04:03:00,
2013-12-02 23:05:00,35.2,32.6,29.90,SW,236,0.0,0.0,90,0.00,,,0.00,Wunderground v.1.12,2013-12-03 04:05:00,
2013-12-02 23:06:00,35.2,32.8,29.90,SW,236,0.0,0.0,91,0.00,,,0.00,Wunderground v.1.12,2013-12-03 04:06:00,
2013-12-02 23:08:00,35.2,32.8,29.90,SW,236,0.0,0.0,91,0.00,,,0.00,Wunderground v.1.12,2013-12-03 04:08:00,
2013-12-02 23:10:00,35.1,32.7,29.90,SW,236,0.0,0.0,91,0.00,,,0.00,Wunderground v.1.12,2013-12-03 04:10:00,
2013-12-02 23:11:00,35.1,32.7,29.90,SW,236,0.0,0.0,91,0.00,,,0.00,Wunderground v.1.12,2013-12-03 04:11:00,
2013-12-02 23:12:00,35.1,32.7,29.90,SW,236,0.0,0.0,91,0.00,,,0.00,Wunderground v.1.12,2013-12-03 04:12:00,
2013-12-02 23:13:00,35.0,32.6,29.90,SW,236,0.0,0.0,91,0.00,,,0.00,Wunderground v.1.12,2013-12-03 04:13:00,
2013-12-02 23:15:00,34.9,32.5,29.90,SW,236,0.0,0.0,91,0.00,,,0.00,Wunderground v.1.12,2013-12-03 04:15:00,
2013-12-02 23:16:00,34.9,32.5,29.90,SW,236,0.0,0.0,91,0.00,,,0.00,Wunderground v.1.12,2013-12-03 04:16:00,
2013-12-02 23:17:00,34.8,32.4,29.90,SW,236,0.0,0.0,91,0.00,,,0.00,Wunderground v.1.12,2013-12-03 04:17:00,
2013-12-02 23:18:00,34.8,32.4,29.90,SW,236,0.0,0.0,91,0.00,,,0.00,Wunderground v.1.12,2013-12-03 04:18:00,
2013-12-02 23:21:00,34.6,32.2,29.90,WSW,243,1.0,1.0,91,0.00,,,0.00,Wunderground v.1.12,2013-12-03 04:21:00,
2013-12-02 23:22:00,34.6,32.5,29.90,WSW,243,1.0,1.0,92,0.00,,,0.00,Wunderground v.1.12,2013-12-03 04:22:00,
2013-12-02 23:23:00,34.5,32.4,29.90,WSW,243,0.0,1.0,92,0.00,,,0.00,Wunderground v.1.12,2013-12-03 04:23:00,
2013-12-02 23:26:00,34.4,32.3,29.90,SW,232,0.0,1.0,92,0.00,,,0.00,Wunderground v.1.12,2013-12-03 04:26:00,
2013-12-02 23:27:00,34.4,32.3,29.90,SW,222,0.0,1.0,92,0.00,,,0.00,Wunderground v.1.12,2013-12-03 04:27:00,
2013-12-02 23:28:00,34.4,32.3,29.90,WSW,239,0.0,1.0,92,0.00,,,0.00,Wunderground v.1.12,2013-12-03 04:28:00,
2013-12-02 23:31:00,34.3,32.2,29.90,WSW,239,0.0,0.0,92,0.00,,,0.00,Wunderground v.1.12,2013-12-03 04:31:00,
2013-12-02 23:32:00,34.3,32.2,29.90,WSW,239,0.0,0.0,92,0.00,,,0.00,Wunderground v.1.12,2013-12-03 04:32:00,
2013-12-02 23:33:00,34.2,32.1,29.90,WSW,239,0.0,0.0,92,0.00,,,0.00,Wunderground v.1.12,2013-12-03 04:33:00,
2013-12-02 23:36:00,34.1,32.0,29.90,WSW,239,0.0,0.0,92,0.00,,,0.00,Wunderground v.1.12,2013-12-03 04:36:00,
2013-12-02 23:37:00,34.1,32.0,29.90,WSW,239,0.0,0.0,92,0.00,,,0.00,Wunderground v.1.12,2013-12-03 04:37:00,
2013-12-02 23:38:00,34.0,31.9,29.90,WSW,240,0.0,0.0,92,0.00,,,0.00,Wunderground v.1.12,2013-12-03 04:38:00,
2013-12-02 23:42:00,33.8,31.7,29.90,WSW,239,0.0,0.0,92,0.00,,,0.00,Wunderground v.1.12,2013-12-03 04:42:00,
2013-12-02 23:43:00,33.8,31.7,29.90,WSW,240,0.0,0.0,92,0.00,,,0.00,Wunderground v.1.12,2013-12-03 04:43:00,
2013-12-02 23:47:00,33.7,31.9,29.90,WSW,239,0.0,0.0,93,0.00,,,0.00,Wunderground v.1.12,2013-12-03 04:47:00,
2013-12-02 23:48:00,33.6,31.8,29.90,WSW,239,0.0,0.0,93,0.00,,,0.00,Wunderground v.1.12,2013-12-03 04:48:00,
2013-12-02 23:52:00,33.7,31.9,29.90,WSW,239,0.0,0.0,93,0.00,,,0.00,Wunderground v.1.12,2013-12-03 04:52:00,
2013-12-02 23:53:00,33.7,31.6,29.90,WSW,239,0.0,0.0,92,0.00,,,0.00,Wunderground v.1.12,2013-12-03 04:53:00,
2013-12-02 23:57:00,33.2,31.1,29.90,WSW,240,0.0,1.0,92,0.00,,,0.00,Wunderground v.1.12,2013-12-03 04:57:00,
2013-12-02 23:58:00,33.1,31.0,29.90,WSW,239,0.0,1.0,92,0.00,,,0.00,Wunderground v.1.12,2013-12-03 04:58:00,